GFSNE_prec_cloud_003.txt.gz
Cloud_Cover
100 100 100 100 100 100 100 100 100 100 100 76 100 100 100 100 100 84 97 94 48 5 5 5 2 0 0 4 5 5 5 28 82 100 100 100 100 100
100 100 100 89 100 100 100 100 100 100 94 100 82 66 99 100 100 98 100 100 92 78 51 5 5 4 1 0 2 5 5 5 5 10 100 100 100 100
100 100 100 100 98 100 100 100 100 100 90 98 100 100 100 100 100 100 96 100 98 18 35 100 5 3 5 4 0 0 4 20 5 5 5 100 100 100
100 100 100 100 100 100 100 100 100 100 100 98 98 100 100 100 100 100 100 100 100 100 63 5 46 3 0 2 5 0 0 0 5 5 5 19 100 100
99 93 100 100 74 100 100 100 99 100 100 92 85 97 86 100 100 100 100 96 61 100 46 5 5 34 50 0 0 0 1 3 0 2 5 5 34 100
92 89 100 100 100 96 99 100 100 100 100 52 12 26 50 41 5 5 50 90 54 79 49 54 5 5 3 5 1 0 0 0 0 3 0 0 1 15
7 32 100 100 85 81 20 94 100 100 100 100 100 100 94 100 100 100 100 100 99 99 93 45 58 92 17 4 1 0 0 0 0 0 0 0 3 27
39 54 54 81 96 100 98 49 89 100 100 100 100 100 100 100 100 96 83 64 89 57 5 5 52 29 12 86 100 100 9 4 0 0 0 0 29 100
61 100 100 100 100 100 94 100 98 89 92 98 100 100 99 90 100 99 84 100 91 100 96 38 74 99 49 16 76 100 95 98 19 1 0 0 11 100
100 100 100 100 100 100 100 97 100 100 100 100 98 98 100 100 100 99 100 100 100 100 100 76 36 36 87 100 51 5 96 100 91 5 5 5 4 100
100 100 100 97 59 19 99 99 100 100 100 85 29 10 14 26 91 100 100 100 100 100 100 100 92 97 100 52 40 5 0 4 8 5 5 5 5 94
100 100 100 94 98 100 100 100 100 100 100 99 100 100 100 77 88 71 67 100 100 82 78 100 100 100 95 100 62 11 7 6 5 5 5 5 71 17
100 100 100 100 100 100 100 100 99 93 98 100 100 100 100 97 85 100 80 76 77 94 100 100 100 100 99 100 82 87 100 97 89 63 5 5 5 52
100 100 100 100 100 100 99 99 99 100 100 100 100 100 100 96 100 96 99 100 100 100 100 100 85 79 100 100 99 100 100 100 100 100 66 80 17 5
100 100 100 100 100 100 100 100 100 100 100 100 100 100 100 100 99 100 98 100 100 99 100 100 99 99 100 100 100 100 100 100 100 99 56 24 78 76
100 100 100 100 100 100 100 100 100 100 100 100 100 100 100 100 100 100 100 100 100 100 100 100 96 100 100 100 100 100 100 100 100 100 69 100 100 100
100 100 100 100 100 100 100 100 100 100 100 100 100 100 100 100 100 100 97 100 100 100 100 100 100 100 96 98 98 98 100 100 100 100 100 100 97 83
100 100 100 100 100 100 100 100 100 100 100 100 100 100 100 100 93 100 100 82 99 100 100 100 100 100 100 99 93 100 100 100 100 100 100 100 100 100
100 100 100 100 100 100 100 100 100 100 100 100 100 100 100 99 100 100 100 100 93 90 97 100 100 100 100 98 96 100 100 100 100 100 100 100 100 100
100 100 100 100 100 100 100 100 100 100 100 100 100 100 100 100 100 100 100 100 94 93 96 100 100 100 100 100 100 100 100 100 100 100 100 100 100 100
100 100 100 100 100 100 100 100 100 100 100 100 100 100 100 100 100 100 100 100 97 92 100 95 94 100 97 95 99 100 100 100 100 100 100 100 100 95
100 100 100 100 100 100 100 100 100 100 100 100 100 100 100 100 100 100 100 100 100 100 100 96 98 99 97 100 100 85 97 93 66 34 100 100 100 100
100 100 100 100 100 100 100 100 100 100 100 100 100 100 100 100 100 100 100 100 100 100 100 98 100 96 100 100 99 100 68 92 99 100 90 80 100 100

GFSNE_prec_cloud_006.txt.gz
Cloud_Cover
100 98 57 18 17 6 94 48 98 95 78 100 27 64 80 100 100 100 100 100 100 98 11 2 5 5 2 5 5 4 0 2 5 6 94 100 100 100
83 100 100 92 90 96 99 95 96 100 12 100 100 44 99 100 100 100 100 100 96 88 100 11 77 5 17 5 5 5 5 0 0 3 2 29 100 100
78 100 100 100 100 100 100 86 97 100 69 78 100 100 99 100 100 100 100 100 90 62 80 95 5 24 36 5 5 5 5 5 0 0 0 0 6 100
100 100 98 100 100 100 100 100 100 100 93 52 66 100 100 99 100 100 100 100 100 94 100 100 73 5 15 65 5 5 5 5 5 0 0 0 1 5
5 5 4 83 48 36 89 99 100 98 99 100 79 30 97 100 99 94 100 94 94 100 100 100 71 23 99 13 54 83 6 4 2 0 0 0 0 1
0 0 0 5 100 100 73 84 84 81 71 6 6 5 6 78 86 54 75 90 91 88 7 5 47 45 95 90 5 45 92 5 4 0 0 0 0 4
0 0 0 0 3 62 61 98 84 43 19 53 77 91 88 100 63 91 94 89 73 81 69 5 54 100 88 44 51 5 5 88 3 0 0 0 0 0
5 0 1 3 2 29 100 28 76 36 55 100 53 99 100 100 100 78 21 56 42 87 30 5 5 5 3 92 26 100 34 5 5 5 0 0 0 0
3 5 5 11 55 100 98 85 88 52 30 95 100 95 100 100 96 84 18 5 69 67 8 4 5 3 19 99 100 68 15 55 22 5 5 5 1 0
11 6 5 31 70 100 100 49 35 68 96 95 89 23 89 56 41 10 26 27 5 15 7 48 5 5 5 5 5 8 100 34 13 89 19 5 5 5
93 99 100 100 96 100 65 17 5 5 26 40 90 100 100 100 100 99 96 88 76 21 34 85 5 6 24 5 5 5 5 5 5 5 19 82 5 5
100 100 100 100 94 100 100 100 100 98 100 37 60 62 77 87 100 100 97 96 59 18 94 100 75 96 57 5 5 5 5 5 0 0 0 0 3 7
96 85 100 100 100 100 100 97 60 76 18 46 53 98 95 66 89 97 98 100 87 15 100 100 72 21 93 91 5 40 24 57 93 44 34 5 3 3
100 100 100 100 100 100 100 99 99 100 100 100 99 99 86 87 96 90 94 100 98 83 100 100 98 53 28 69 58 87 94 78 92 49 70 89 20 46
100 100 100 100 100 100 100 100 100 100 100 100 100 100 100 100 96 100 100 100 99 95 100 100 100 90 95 83 69 95 96 88 23 78 90 84 33 68
100 100 100 100 100 100 100 100 100 100 100 100 100 100 94 86 91 95 99 99 97 62 78 94 90 87 97 64 56 100 100 99 81 99 100 24 70 100
100 100 100 100 100 100 100 100 100 100 99 92 92 99 99 93 100 97 96 100 99 98 90 91 92 84 69 83 88 100 100 100 100 100 100 100 92 96
100 100 100 100 100 100 100 100 100 100 95 98 87 91 98 100 90 99 91 99 97 85 91 92 88 96 99 96 84 82 68 90 100 100 99 100 100 80
100 100 100 100 100 100 100 100 100 100 100 95 100 95 100 100 87 74 66 56 100 90 78 100 61 58 91 99 98 100 100 95 88 100 79 57 88 100
100 100 100 100 100 100 100 100 100 100 99 91 95 94 97 92 100 97 78 95 100 98 100 48 71 61 75 93 87 94 100 100 100 100 87 100 100 100
100 100 100 100 100 100 100 100 100 100 100 100 100 100 100 95 93 99 99 97 99 88 94 71 20 56 60 67 91 98 78 92 91 100 100 100 100 100
100 100 100 100 100 100 100 100 100 100 100 100 100 100 98 100 97 100 100 100 100 100 100 100 99 92 94 89 99 99 90 94 38 39 61 83 100 100
100 100 100 100 100 100 100 100 100 100 100 100 100 100 100 100 100 100 100 100 100 98 100 96 99 99 100 89 89 98 76 70 68 77 100 89 98 100

GFSNE_prec_cloud_009.txt.gz
Cloud_Cover
96 86 82 96 100 100 100 100 100 100 58 77 24 5 30 99 99 68 100 100 100 100 100 100 100 100 62 100 29 0 0 2 5 66 63 100 100 100
100 100 100 93 98 100 100 100 100 100 98 37 98 100 100 100 100 96 99 100 100 100 100 100 100 100 100 98 43 1 0 0 0 7 56 19 100 55
29 53 32 74 93 95 95 100 100 100 100 11 52 42 78 99 100 100 100 100 100 100 100 100 100 100 100 19 4 5 5 4 0 4 2 37 33 100
66 22 5 5 6 5 52 72 100 100 89 16 81 100 58 100 100 100 100 100 100 100 100 100 100 100 100 100 73 73 5 5 5 2 3 1 5 6
5 5 5 2 0 0 61 5 5 51 58 63 8 99 74 100 94 98 77 100 100 100 100 100 100 100 100 99 95 100 38 5 5 5 2 0 0 4
4 0 0 0 0 0 0 5 5 5 16 5 17 40 100 100 100 76 5 84 100 100 100 100 98 100 18 5 7 99 100 76 4 0 3 5 0 0
4 5 3 2 5 5 49 70 20 95 35 5 28 5 96 100 100 99 13 69 98 100 100 100 79 94 28 50 8 34 100 100 62 5 0 0 0 5
2 0 5 5 71 69 83 100 100 100 88 62 5 5 76 73 100 84 10 5 23 76 100 6 5 5 5 5 5 35 18 100 100 42 5 5 5 1
5 5 5 5 5 6 100 100 99 100 100 100 91 20 37 59 9 76 76 68 18 49 15 35 5 5 5 4 5 58 53 5 13 100 5 5 4 0
57 26 6 26 66 100 73 7 5 23 85 100 98 5 25 91 5 23 40 95 87 98 98 9 99 11 83 6 5 5 5 16 54 5 71 5 5 5
56 89 73 41 93 97 98 81 85 15 12 5 18 86 96 81 98 100 97 88 88 61 52 12 73 50 37 8 12 5 5 5 5 5 5 1 5 5
100 100 100 100 100 100 87 64 92 27 15 57 53 68 45 5 58 89 47 92 100 70 46 71 5 5 5 6 58 45 5 5 5 5 5 0 0 4
100 100 100 100 100 100 100 96 79 82 91 28 5 8 63 45 99 96 50 8 25 74 99 100 8 34 39 23 5 5 5 5 21 44 72 7 5 5
100 100 100 100 100 100 100 100 100 100 100 98 99 100 100 100 99 100 100 76 72 43 100 79 74 6 24 48 48 100 39 5 17 69 94 96 73 5
100 100 100 100 100 100 100 100 100 100 100 100 100 100 100 100 100 100 100 88 74 58 83 94 100 97 100 73 62 100 74 70 67 80 100 95 46 48
100 100 100 100 100 100 100 100 100 100 100 100 100 100 100 100 100 100 100 99 100 100 91 66 77 98 100 99 100 100 100 100 88 76 99 100 100 29
100 100 100 100 100 100 100 100 100 100 100 100 87 88 92 100 100 100 100 100 99 78 78 78 79 73 98 100 100 100 100 73 98 49 94 94 99 80
100 100 100 100 100 100 100 100 100 100 96 93 97 89 97 91 94 77 81 88 72 88 60 14 78 94 99 96 97 100 100 100 100 98 100 100 82 100
100 100 100 100 100 100 100 100 100 100 100 100 97 90 99 100 95 90 69 93 96 100 100 92 100 100 100 94 98 82 100 100 100 100 99 50 98 99
74 100 100 100 100 100 100 100 100 100 100 100 100 99 100 98 83 86 76 88 97 83 97 99 86 97 96 87 81 68 54 86 94 74 78 92 91 97
41 94 100 100 100 100 100 100 100 100 100 100 100 100 100 99 99 79 68 73 66 63 73 79 71 69 99 100 100 89 70 95 62 61 33 80 37 86
56 52 96 99 100 100 100 100 100 100 100 100 100 100 100 100 100 99 91 83 73 68 36 59 47 67 64 78 91 86 99 72 41 5 6 21 33 95
21 31 59 82 100 100 100 100 100 100 100 100 100 100 100 100 100 99 89 98 72 30 31 97 44 92 44 58 84 97 74 35 90 82 63 78 5 5

GFSNE_prec_cloud_015.txt.gz
Cloud_Cover
94 100 53 0 0 1 3 32 98 68 7 5 95 100 100 100 87 5 5 5 4 5 5 93 98 100 100 100 100 100 100 79 8 0 100 100 100 92
7 40 4 0 5 5 5 5 31 12 45 5 5 95 100 100 100 62 5 5 5 1 5 68 100 100 100 100 100 100 99 100 92 97 100 36 100 100
18 6 18 5 4 5 5 3 3 5 5 2 0 8 20 100 100 100 13 5 5 5 3 8 100 100 100 100 100 100 100 100 100 91 2 0 3 97
5 72 53 5 5 5 5 0 0 1 5 5 3 4 5 5 100 100 90 12 5 0 5 24 100 100 100 100 100 100 100 100 100 100 84 59 0 2
92 88 5 5 4 0 0 3 5 16 85 97 20 5 5 5 4 21 74 99 6 5 5 28 100 100 100 100 100 100 100 100 83 100 100 100 81 1
5 5 5 5 5 2 5 5 75 100 100 100 69 40 33 37 5 3 3 4 89 5 30 28 100 100 100 100 100 100 100 100 100 100 100 100 100 100
5 5 5 5 53 31 64 82 100 87 89 100 100 100 99 56 5 20 5 4 36 5 90 88 100 100 100 100 100 100 100 100 100 100 100 100 100 93
66 80 5 5 5 71 85 99 100 100 100 100 76 100 100 78 50 5 5 5 5 7 5 100 58 100 100 100 100 100 100 100 100 100 100 100 100 94
74 29 11 53 51 34 71 100 100 100 100 100 100 100 100 100 95 27 5 5 5 5 5 97 96 100 100 100 100 100 100 100 100 100 100 100 91 7
5 5 63 81 94 100 100 100 100 100 100 100 100 100 32 44 80 5 5 5 33 22 8 98 61 100 100 69 100 100 100 100 100 100 100 100 100 92
62 5 98 100 95 100 100 100 100 100 96 79 63 99 100 100 98 87 96 100 100 98 68 76 53 69 100 41 34 83 96 100 94 100 100 100 100 83
9 5 55 100 100 100 100 100 100 100 97 94 76 5 28 5 37 86 13 14 66 64 11 97 43 25 72 8 6 88 100 89 96 100 100 100 98 34
87 59 79 100 100 100 100 100 100 100 100 100 100 90 58 29 5 5 5 5 8 97 47 13 100 51 87 100 18 44 57 100 47 33 82 10 28 5
88 78 100 100 100 100 100 100 100 100 100 100 100 100 100 100 95 92 96 91 80 56 100 67 100 86 99 100 99 49 5 5 13 7 13 10 5 3
6 100 98 99 100 100 100 100 100 100 100 100 100 100 100 100 100 100 100 100 100 97 100 63 32 26 77 53 37 64 6 5 66 38 99 98 72 70
5 7 5 86 100 89 93 100 100 100 100 100 100 100 100 100 100 100 100 100 100 100 98 80 36 79 100 100 100 90 17 98 77 81 47 55 28 19
24 44 53 85 94 96 100 100 100 100 100 100 100 100 100 100 100 100 100 100 100 100 84 100 99 99 98 98 100 100 99 67 53 52 81 35 25 16
5 81 93 81 97 100 100 100 98 96 100 100 100 100 100 100 100 100 100 100 100 100 99 97 100 100 100 99 100 100 100 100 100 100 100 100 70 37
62 75 100 99 92 100 100 100 100 100 75 100 100 100 100 100 100 100 100 96 91 98 100 100 100 100 100 100 100 89 100 90 99 100 100 100 93 99
68 81 100 100 90 89 100 100 100 100 100 96 100 99 88 99 94 100 100 100 100 100 100 97 97 100 99 96 98 93 86 79 100 100 99 99 84 80
55 63 76 100 86 76 88 99 100 100 100 100 100 100 98 94 76 84 82 96 100 88 69 65 57 61 67 87 98 70 75 97 82 64 84 86 87 89
61 58 12 72 76 74 92 100 85 100 100 100 100 100 100 100 100 100 95 95 81 81 73 99 51 52 48 7 59 96 98 95 54 5 6 8 27 63
62 18 53 60 71 68 67 83 68 85 100 100 100 100 100 100 100 100 100 100 100 100 100 100 97 45 73 77 56 89 100 100 94 76 19 57 27 5

GFSNE_prec_cloud_018.txt.gz
Cloud_Cover
98 89 4 2 5 5 7 43 100 41 4 0 4 1 43 90 100 100 50 5 5 0 0 0 0 47 100 100 100 100 37 5 53 64 30 4 2 84
36 5 26 58 5 70 72 76 92 100 67 0 0 0 0 0 6 88 95 74 5 5 2 0 0 1 42 100 100 100 98 98 100 100 100 14 43 9
0 5 5 5 5 5 5 5 3 4 5 1 0 0 0 0 0 4 92 74 9 9 91 5 3 0 5 88 100 100 92 100 100 100 100 90 94 14
5 5 5 5 5 1 1 5 0 4 5 91 5 5 5 0 74 5 5 98 81 12 5 87 5 5 5 46 100 100 100 100 100 100 100 100 100 100
5 5 5 5 5 5 5 5 5 5 11 100 85 5 5 5 2 33 4 0 0 44 6 5 16 5 5 14 100 100 100 97 100 100 100 100 100 100
5 5 5 5 5 8 46 64 44 83 96 73 61 99 88 11 88 99 34 3 0 0 5 1 34 51 70 52 100 100 100 100 100 100 100 100 100 100
5 7 5 59 100 100 100 99 100 100 100 100 100 98 92 92 99 100 95 45 4 0 2 3 8 90 100 95 100 100 100 100 100 100 100 79 100 100
6 5 5 5 29 100 83 100 100 100 100 94 78 88 100 83 100 100 100 98 5 0 5 2 4 98 88 100 100 100 100 100 100 100 100 100 100 100
5 5 13 76 25 49 32 87 100 100 100 100 100 100 100 99 99 99 100 96 37 5 5 5 5 18 100 100 100 100 100 100 100 100 100 100 100 100
5 8 41 68 52 99 98 100 100 100 100 100 100 88 76 100 99 100 99 85 77 6 7 90 5 10 72 97 100 100 100 99 100 100 98 100 100 100
9 5 97 98 66 100 100 100 100 100 100 100 100 100 97 100 100 100 94 83 75 96 100 94 56 5 8 60 100 100 100 100 100 100 100 100 100 100
14 19 32 100 100 100 100 91 100 100 100 100 98 95 83 97 72 42 46 99 97 96 92 85 6 5 14 5 5 92 93 100 100 100 100 100 100 100
59 32 66 98 100 100 100 94 100 100 100 100 100 98 93 95 36 5 5 5 11 43 15 5 5 25 100 100 36 27 100 100 61 100 100 100 100 100
7 15 93 100 92 96 100 100 100 100 100 100 100 100 97 91 96 93 70 48 38 67 86 47 96 100 100 92 60 92 99 44 11 32 100 66 100 100
5 23 19 5 61 46 97 100 100 100 100 100 100 100 100 100 100 100 100 100 100 100 100 100 100 99 71 100 56 76 81 16 100 63 94 100 42 80
5 8 5 5 7 42 66 100 100 100 100 100 100 100 100 100 100 100 100 100 100 100 100 100 100 100 100 100 100 100 86 89 69 61 78 90 47 8
24 33 15 12 29 92 66 84 100 92 96 100 100 100 100 100 100 100 100 100 100 100 100 100 100 100 100 99 97 100 100 100 90 100 100 57 18 19
5 80 100 100 85 96 100 84 100 100 91 100 100 100 99 100 100 100 100 100 100 100 100 100 100 100 100 98 98 100 97 98 100 100 94 88 86 7
31 68 100 100 99 63 90 82 100 100 100 100 100 100 100 100 100 100 88 100 100 99 96 94 100 100 99 94 93 98 97 100 99 100 100 100 100 91
35 65 88 99 99 60 84 98 68 100 100 100 99 98 100 100 100 97 94 100 95 100 98 86 96 100 100 99 98 93 97 95 100 98 97 98 98 99
6 5 53 47 89 56 85 100 83 55 100 100 100 100 99 100 100 90 90 52 42 6 32 62 92 94 94 100 86 87 90 100 93 68 57 60 71 81
60 19 5 9 61 69 86 100 92 63 38 95 100 100 100 100 100 99 80 87 5 5 5 23 74 87 99 84 17 67 85 90 88 77 30 7 8 15
65 53 49 46 28 60 28 87 81 99 39 10 100 100 100 100 100 100 100 100 100 100 100 79 94 98 94 99 94 86 100 100 100 99 75 20 5 5

GFSNE_prec_cloud_021.txt.gz
Cloud_Cover
5 4 0 0 1 5 5 76 99 98 14 5 5 5 5 5 5 5 5 4 98 100 81 5 0 0 0 99 94 5 12 60 6 0 4 1 5 5
5 5 0 3 5 5 5 55 89 91 75 5 5 5 5 5 5 5 5 2 1 35 100 15 5 4 0 1 17 18 5 84 34 5 2 2 5 21
7 4 4 5 7 81 93 76 60 77 81 2 5 5 5 10 44 6 4 5 5 5 45 57 5 21 5 1 1 66 95 38 10 68 5 5 22 98
5 5 5 8 5 80 100 100 100 100 100 97 52 76 100 100 100 100 16 82 100 40 1 5 5 16 62 5 3 41 97 100 36 89 100 6 100 97
7 5 5 74 42 60 98 100 100 100 100 100 64 100 100 100 100 100 100 100 100 5 0 2 5 5 77 52 5 5 87 92 78 24 100 100 100 100
5 5 5 5 5 77 100 100 100 100 100 100 100 100 100 100 100 100 100 100 100 93 4 0 1 2 6 100 15 26 42 100 94 100 100 100 100 100
5 2 5 5 58 94 100 100 100 100 100 100 100 100 100 100 100 100 100 99 97 99 7 5 3 5 21 30 97 11 72 100 100 23 100 100 100 77
0 2 5 5 84 100 100 100 100 100 100 100 100 100 100 100 100 100 100 100 100 95 68 98 5 14 93 34 100 100 57 100 100 100 100 100 19 100
5 7 75 100 100 100 100 98 100 98 100 99 100 100 100 100 100 100 100 100 100 100 98 100 88 9 35 81 99 100 100 100 100 100 100 100 100 100
10 94 100 100 100 100 100 100 100 100 100 100 100 100 100 100 100 100 100 100 100 100 100 96 98 86 20 7 99 100 100 100 100 100 100 100 100 100
94 100 100 100 100 100 100 100 100 100 100 86 95 99 100 100 100 100 100 100 100 100 100 100 97 100 99 16 5 100 100 100 100 100 100 100 100 100
100 30 99 100 100 100 100 100 100 100 100 99 100 100 100 100 99 94 100 100 100 100 100 98 100 100 100 36 5 100 100 100 100 100 100 100 100 100
77 5 44 99 98 100 100 100 100 100 100 100 100 100 100 100 100 100 100 100 100 100 100 100 100 100 100 100 92 76 95 100 100 100 100 100 100 91
99 5 56 75 25 58 99 100 100 100 100 100 100 100 100 100 100 100 100 100 89 52 98 84 96 100 100 100 100 58 60 98 78 99 100 100 100 100
87 6 5 5 5 5 52 84 100 100 100 100 100 100 100 100 100 100 100 100 99 100 94 100 99 100 100 100 100 82 95 100 100 100 60 100 100 100
17 3 4 5 1 20 9 68 94 100 100 100 100 100 100 100 100 100 100 100 100 100 100 100 100 100 100 100 100 100 99 98 38 22 92 88 46 100
4 5 5 5 1 5 5 7 84 95 100 100 100 100 100 100 100 100 100 100 100 100 100 100 100 100 100 100 100 98 100 100 100 96 98 34 40 77
5 5 5 5 5 5 5 5 41 86 97 100 100 100 100 100 100 100 100 100 100 100 100 100 100 100 100 100 100 100 100 100 99 100 99 100 99 98
5 9 63 6 5 5 5 5 5 6 99 100 100 100 100 100 100 100 100 100 100 100 100 100 100 100 100 100 100 100 100 100 100 100 100 100 100 100
15 5 15 62 20 5 5 5 5 5 24 68 100 100 100 100 100 100 100 100 100 100 100 99 100 100 100 100 100 99 100 100 100 100 100 100 100 100
100 71 65 57 60 29 22 6 46 5 6 48 57 100 100 95 100 100 100 100 82 93 94 100 98 70 92 78 100 100 100 87 82 99 97 100 100 100
96 100 74 70 87 81 86 76 20 40 5 5 37 69 99 100 100 100 100 100 100 100 65 93 92 99 98 97 99 84 93 97 78 71 62 64 94 100
95 92 98 88 90 92 76 70 13 38 49 5 5 17 97 92 100 100 100 100 100 100 100 100 100 100 100 99 76 100 99 94 99 100 96 69 6 5

GFSNE_prec_cloud_024.txt.gz
Cloud_Cover
100 100 100 100 100 100 100 100 100 91 52 38 38 83 89 100 100 64 42 5 5 5 1 5 6 5 5 2 0 0 0 100 19 67 87 51 17 8
100 100 100 100 100 100 100 100 100 100 71 79 92 100 100 100 100 100 96 27 5 2 0 0 5 70 5 5 2 0 0 53 63 3 82 66 3 5
100 100 100 100 100 100 100 100 100 100 98 5 100 100 100 100 100 89 100 100 100 32 5 5 0 4 5 5 5 1 0 87 68 8 10 97 5 4
100 100 100 100 67 98 100 100 100 100 100 100 100 100 100 100 100 100 100 100 100 100 100 100 5 0 1 5 5 5 0 4 88 10 34 20 23 0
100 95 79 5 5 5 5 83 100 100 100 100 100 100 100 100 100 100 100 100 100 100 68 96 5 0 0 4 5 97 20 4 18 72 66 58 37 12
68 5 5 5 5 5 16 95 100 100 100 100 100 100 100 100 100 100 100 100 100 100 100 62 60 12 0 0 4 95 89 99 84 100 100 100 100 100
5 2 2 4 5 72 97 97 100 100 100 100 100 100 100 100 100 100 100 100 100 100 100 100 100 92 79 6 6 11 95 100 90 100 100 100 100 100
4 0 2 5 87 16 96 93 90 100 100 100 100 100 100 100 100 100 100 100 100 100 100 100 100 100 100 100 67 5 83 74 100 99 92 69 100 100
4 5 5 31 100 100 100 100 100 100 100 96 100 100 100 100 100 100 100 100 100 100 100 100 100 100 89 100 21 4 74 78 100 100 100 96 100 100
5 7 53 30 100 83 100 100 100 100 100 100 100 100 100 100 100 100 100 100 100 100 100 100 100 100 75 100 70 4 94 86 100 100 92 41 100 100
44 75 33 5 100 94 100 100 100 100 100 100 88 72 28 38 77 92 100 100 100 100 100 99 100 100 100 100 98 5 94 100 100 100 100 100 99 100
83 79 18 28 45 98 100 100 100 100 100 100 100 100 100 100 99 99 100 100 100 100 100 100 100 100 95 100 100 97 92 100 100 100 100 100 100 100
77 91 56 18 22 62 70 100 96 100 100 100 100 100 100 100 100 100 100 100 100 100 100 100 100 100 91 100 100 100 90 100 100 100 100 100 100 100
94 100 59 4 5 5 38 21 64 87 100 100 100 100 100 100 100 100 99 99 100 100 100 100 100 100 100 100 100 97 97 88 100 100 100 100 100 100
92 14 5 5 5 3 5 25 25 91 100 100 100 100 100 100 100 100 100 100 100 98 97 100 100 100 100 100 100 100 97 52 100 97 69 100 98 98
99 12 6 5 5 5 18 8 5 7 96 100 100 100 100 100 100 100 100 100 100 100 97 100 100 99 100 100 100 100 93 99 100 100 100 100 100 100
5 86 96 68 5 5 5 5 16 5 21 100 100 100 100 100 100 100 100 100 100 100 100 100 100 100 100 100 100 100 100 99 100 100 100 100 100 100
47 100 100 100 99 43 26 5 20 5 5 34 100 100 100 100 100 100 100 100 100 100 100 100 100 100 100 100 98 100 100 100 100 100 100 100 100 98
89 100 100 100 99 69 5 6 6 5 5 5 53 100 100 100 100 100 100 100 100 100 100 100 100 100 100 100 100 100 100 100 96 99 92 74 100 100
81 100 100 100 100 95 20 5 5 34 86 5 48 88 100 100 100 100 100 100 100 100 100 100 100 100 100 100 100 100 100 100 98 100 100 100 97 86
100 100 100 100 100 100 99 100 94 80 41 43 92 87 100 100 100 100 100 100 100 100 100 100 100 100 100 100 100 100 98 99 81 97 92 99 100 100
100 100 100 100 100 100 100 100 98 100 100 78 49 70 100 100 97 100 100 100 100 100 100 100 100 100 100 100 100 100 100 100 100 100 100 68 99 100
100 100 100 100 100 100 100 100 100 100 100 100 99 8 77 100 100 95 100 84 90 100 100 100 100 100 100 100 100 100 99 89 99 100 85 99 78 10

GFSNE_prec_cloud_027.txt.gz
Cloud_Cover
28 100 72 91 72 100 100 100 100 5 5 30 80 100 100 86 46 5 36 5 5 5 2 5 5 5 0 5 5 0 0 2 4 35 100 69 14 100
99 100 84 72 98 100 98 94 100 35 6 82 74 98 86 93 84 45 17 21 6 5 5 5 1 0 0 2 1 5 0 1 0 2 100 88 61 100
92 23 72 100 94 89 100 41 100 98 63 2 26 96 98 94 100 76 90 35 22 89 56 89 63 4 4 0 0 14 5 1 0 0 60 99 1 18
100 88 100 100 100 48 5 7 5 5 78 8 13 100 100 100 92 100 100 100 96 83 97 93 19 58 9 5 0 0 5 5 2 0 99 69 5 16
92 96 99 97 5 5 19 5 5 50 100 70 65 98 94 100 74 98 99 75 100 100 64 89 60 96 100 5 0 0 1 28 5 45 99 49 5 79
99 100 61 15 5 5 5 5 61 100 100 100 100 100 100 97 100 99 93 78 100 99 92 92 100 58 99 5 0 0 0 24 95 100 100 98 5 99
92 9 16 5 0 1 5 85 100 100 100 100 99 75 98 100 100 100 100 100 67 47 85 98 100 100 86 97 17 4 5 5 92 89 100 96 78 47
5 5 5 27 81 5 88 86 54 99 99 100 100 100 100 100 100 100 100 100 91 92 100 100 100 100 100 100 100 100 86 4 19 100 100 100 100 100
9 5 14 12 94 64 74 93 99 94 90 71 97 100 100 100 99 97 99 100 100 99 98 45 100 100 100 100 70 5 4 0 11 100 100 100 89 100
74 77 67 78 70 5 5 70 80 100 100 100 100 96 99 70 69 100 99 96 85 81 98 96 100 100 100 31 7 2 0 0 4 94 100 100 100 100
99 76 41 12 18 4 5 74 80 94 100 94 37 21 5 5 21 95 100 100 100 80 100 100 100 100 59 90 70 2 3 2 10 100 100 100 99 100
98 69 100 5 5 5 12 65 97 99 39 72 73 98 100 100 100 93 100 100 99 86 100 100 100 100 77 100 93 7 7 6 18 100 100 100 100 100
73 74 99 24 3 5 5 69 83 23 72 100 100 100 100 100 100 96 100 100 100 100 100 100 100 100 100 100 100 94 8 48 78 100 100 100 100 100
96 95 91 6 3 5 5 7 1 28 99 100 100 100 100 100 100 92 100 100 100 98 100 100 100 100 100 98 98 100 65 56 100 100 100 100 100 100
97 51 5 5 5 5 5 5 7 100 82 100 100 100 100 95 98 90 97 98 100 77 87 40 85 100 100 74 98 100 100 70 100 100 100 100 100 100
97 98 23 5 10 22 78 100 100 99 65 98 100 100 100 100 100 100 96 100 100 100 100 95 90 81 90 100 100 100 100 85 88 100 100 100 100 100
10 36 99 100 99 100 100 100 100 100 100 16 100 100 100 100 100 100 100 99 100 100 100 100 100 100 93 88 100 84 71 97 100 95 100 100 100 100
65 98 92 100 97 100 100 100 100 100 100 96 100 100 100 100 100 99 100 100 100 100 100 100 100 100 100 100 96 100 40 58 94 60 100 96 100 100
87 98 100 100 97 100 100 100 100 100 24 100 100 100 100 100 100 100 100 100 100 100 100 100 100 100 100 100 100 93 82 100 100 100 94 100 100 100
99 99 100 100 99 100 100 100 100 100 100 100 100 100 100 100 100 100 100 100 100 100 100 100 100 100 100 100 100 100 100 100 100 100 100 100 79 90
100 100 92 100 97 100 100 98 100 100 92 89 100 100 100 100 100 100 100 100 92 100 100 100 100 100 100 100 100 100 100 100 100 100 100 100 100 98
100 99 99 98 100 100 96 100 100 100 100 100 100 100 100 100 100 100 100 100 100 100 100 100 100 100 100 100 100 100 100 95 87 100 100 100 100 100
99 93 100 100 100 91 97 100 100 100 100 100 100 100 100 100 100 100 100 100 100 87 100 100 100 100 100 100 100 100 100 100 100 100 94 96 79 86

GFSNE_prec_cloud_030.txt.gz
Cloud_Cover
5 5 76 94 100 99 32 67 100 93 2 4 0 0 61 56 5 4 0 0 0 0 0 0 0 3 5 5 5 5 72 100 5 2 2 5 8 100
5 18 100 100 100 8 5 5 82 96 21 1 5 36 5 0 0 0 0 0 0 0 0 0 2 5 5 10 4 5 5 32 5 5 5 5 5 93
94 84 100 100 98 58 6 6 5 18 5 1 0 0 4 3 0 0 0 0 0 4 5 5 10 29 5 13 43 4 0 0 3 5 4 5 5 57
79 90 73 91 18 31 5 4 0 0 0 3 5 5 5 0 4 5 5 5 5 5 1 5 5 5 5 9 100 27 5 0 0 3 5 4 4 94
26 15 16 5 5 3 0 0 0 1 5 5 5 3 5 5 5 5 5 5 8 5 8 7 55 100 100 100 100 100 9 0 0 1 5 7 100 60
25 16 49 5 5 4 0 0 1 5 5 5 5 5 5 5 22 42 24 5 5 5 2 5 3 55 74 100 70 100 82 2 0 4 5 5 73 22
5 80 14 5 4 0 1 3 5 5 5 5 5 5 5 5 10 71 86 27 5 5 5 2 95 87 5 93 100 93 100 7 1 5 4 5 9 67
100 42 4 5 5 5 5 5 5 5 5 5 10 99 39 86 98 89 79 17 39 4 5 0 39 5 88 100 100 100 100 100 100 14 2 5 71 26
72 5 5 5 5 5 4 0 0 4 47 99 100 100 100 91 17 16 5 5 14 5 5 0 5 10 100 100 82 14 100 100 93 5 5 7 100 59
36 5 5 46 5 0 0 0 2 5 5 68 93 8 20 5 5 5 5 5 5 5 85 28 26 5 82 96 68 67 100 34 13 5 64 91 100 73
5 5 17 8 5 5 2 4 5 4 5 11 5 5 5 76 83 99 76 96 62 41 99 6 93 70 6 55 90 100 100 55 4 0 100 100 100 100
5 5 5 5 5 5 4 5 5 5 4 1 5 5 20 61 100 100 100 100 98 61 100 93 99 97 18 74 100 100 100 94 100 52 100 100 100 100
5 5 36 24 5 5 3 5 5 4 2 5 5 8 97 99 59 33 92 100 100 100 100 94 100 100 79 100 100 100 100 96 60 100 100 100 100 100
5 5 5 5 2 5 3 0 5 5 8 16 5 17 98 97 97 70 6 69 69 100 97 61 99 100 100 100 100 100 100 100 56 96 100 100 100 100
5 5 5 5 5 5 5 5 46 5 77 5 5 26 8 99 94 100 49 75 88 100 85 100 84 97 100 100 100 92 100 100 75 100 100 100 100 100
5 48 66 20 8 12 9 46 66 64 70 68 35 4 5 52 90 96 71 100 100 100 100 100 100 100 95 100 100 62 97 95 100 100 100 100 100 100
87 41 45 32 100 64 26 51 45 17 9 68 5 11 59 6 50 60 100 97 100 100 100 100 100 100 100 97 61 98 100 100 100 100 100 100 100 100
76 5 20 55 78 77 62 40 9 5 31 5 25 98 100 97 5 67 100 100 92 100 100 100 100 100 100 100 95 100 88 95 100 100 100 100 100 89
38 5 8 47 96 100 95 50 44 19 5 11 90 54 100 100 94 7 94 100 77 82 100 100 100 100 100 100 100 100 100 70 62 97 100 100 100 100
99 71 45 46 81 98 97 86 71 5 5 40 12 72 100 100 100 99 22 100 99 93 100 100 100 100 100 100 100 100 100 100 100 97 86 100 100 100
69 80 49 55 65 97 83 89 71 76 48 5 5 82 100 100 92 100 84 38 100 94 96 100 100 100 100 100 100 100 100 100 100 98 90 100 100 100
34 41 99 93 99 100 96 84 94 89 67 81 93 61 100 79 32 99 100 74 53 100 97 100 100 100 100 99 100 100 100 100 100 100 100 96 89 100
92 73 92 82 84 89 100 94 97 100 100 83 41 54 81 11 12 100 100 100 14 51 100 100 100 100 100 100 100 100 100 100 100 100 99 100 100 100

GFSNE_prec_cloud_033.txt.gz
Cloud_Cover
5 35 90 18 65 100 100 100 99 87 8 1 1 0 0 4 4 2 0 0 0 0 0 3 0 1 5 13 100 96 100 96 84 86 58 100 98 5
23 5 26 42 74 95 100 100 90 100 5 3 0 0 0 0 0 0 0 0 0 0 0 0 1 4 4 4 50 75 98 100 53 60 100 89 80 5
99 100 78 95 100 98 80 90 99 5 4 0 0 0 0 0 0 0 0 0 0 0 0 0 0 0 5 8 54 8 33 27 28 58 15 5 5 5
100 100 100 100 100 53 21 1 0 0 0 0 0 0 0 0 0 0 0 0 1 5 16 5 22 98 55 98 27 72 5 100 91 5 2 0 5 5
100 100 100 100 100 92 49 4 0 0 0 3 0 0 0 0 0 1 0 1 3 4 5 5 3 4 6 0 31 85 78 100 92 5 5 0 0 5
100 100 100 100 100 100 93 0 0 0 1 5 5 1 4 2 5 12 45 5 2 0 0 0 2 1 0 1 5 6 86 100 100 60 2 0 0 5
100 100 100 100 100 100 1 0 0 4 5 5 5 5 5 14 94 79 8 2 2 0 0 1 1 0 0 4 5 47 100 100 100 6 5 14 4 0
100 100 100 100 100 68 0 3 5 5 5 57 5 63 50 99 62 5 5 5 26 0 5 5 2 2 0 3 39 100 100 100 100 100 100 36 5 0
100 100 100 100 67 5 5 5 0 0 0 3 5 94 94 84 8 5 5 21 75 7 39 43 5 5 2 0 100 100 100 100 97 100 100 45 4 5
100 100 100 8 5 5 5 0 0 0 0 3 93 15 16 42 89 89 69 76 27 5 100 97 5 5 54 5 99 94 95 42 100 100 100 5 4 84
100 65 5 5 5 5 5 5 4 2 0 4 0 5 5 9 84 100 93 91 71 22 55 100 7 8 8 5 35 100 100 70 100 100 14 5 12 100
5 5 5 5 5 5 5 5 7 2 4 2 0 2 5 5 53 94 100 99 100 72 98 99 45 61 57 28 43 99 100 99 100 85 23 13 100 100
5 5 5 5 5 5 5 5 5 2 5 5 5 2 5 5 5 5 70 100 100 93 100 100 99 99 48 100 99 100 96 100 100 100 98 100 100 100
5 5 5 46 14 5 5 5 5 5 5 5 5 5 5 5 5 5 5 5 76 91 98 100 100 95 82 65 45 92 100 100 100 100 100 100 100 100
5 5 5 5 8 17 10 5 6 5 5 41 29 5 5 5 5 44 48 86 49 63 96 100 100 86 99 100 83 74 100 100 100 100 100 100 100 100
5 8 22 9 5 23 96 97 55 40 22 59 21 10 5 5 5 6 84 100 100 100 80 100 96 96 97 74 93 39 100 100 100 100 100 100 100 100
31 31 99 49 16 98 100 100 93 60 11 5 15 6 5 5 5 5 23 100 94 97 100 100 100 100 100 100 100 78 92 100 100 100 100 100 100 100
97 98 98 71 23 11 81 70 71 75 55 27 5 23 40 47 5 5 5 67 100 38 88 100 100 100 100 100 100 100 40 68 100 100 100 100 100 100
81 44 94 33 38 46 97 68 81 85 54 54 11 5 54 8 10 7 5 5 100 84 64 100 100 100 100 96 100 98 97 99 63 49 100 100 100 100
77 57 59 54 6 14 5 51 54 66 68 50 11 7 62 62 68 39 44 63 33 100 76 98 100 100 100 99 100 100 86 89 96 32 82 100 100 100
98 91 96 56 34 34 18 50 100 72 51 58 35 32 64 94 54 19 79 20 15 80 100 99 100 100 100 100 99 100 100 100 97 88 77 82 78 92
99 100 100 78 46 21 65 95 100 72 66 74 58 69 78 53 6 38 77 85 16 5 97 100 100 100 100 100 100 100 100 100 100 100 100 90 96 93
100 100 100 88 96 64 88 62 67 100 85 57 54 59 76 6 9 50 88 61 90 5 5 99 100 100 100 100 100 100 100 100 100 100 100 100 100 100

GFSNE_prec_cloud_036.txt.gz
Cloud_Cover
11 35 9 81 81 81 84 100 100 88 63 49 99 5 2 0 0 0 0 0 0 0 0 0 5 23 93 100 100 100 100 100 100 99 100 100 100 58
5 75 6 5 70 97 100 100 100 100 51 5 5 6 4 0 0 0 0 0 0 0 0 5 5 5 5 23 33 96 100 100 95 56 100 100 100 82
82 100 66 67 100 66 72 87 88 100 66 27 5 2 0 0 0 0 0 0 0 0 5 5 5 5 1 5 5 5 5 5 13 5 41 100 100 100
100 100 100 100 100 100 100 100 100 100 81 0 1 0 0 0 0 2 0 0 1 0 5 5 3 0 0 27 81 5 5 5 5 5 5 40 96 99
100 100 100 100 100 100 100 100 100 42 5 3 1 0 0 0 0 1 4 5 0 2 0 0 0 0 5 5 1 2 5 5 5 5 5 5 5 5
100 100 100 100 100 100 100 99 50 4 0 5 5 5 5 1 5 5 32 5 0 0 0 0 3 2 1 0 0 0 5 5 5 5 38 5 2 0
100 100 100 100 100 100 44 3 0 3 5 5 5 5 5 5 13 9 13 5 2 0 2 4 5 0 3 4 0 0 3 9 80 50 92 25 4 0
100 100 100 100 73 100 2 1 5 5 5 66 5 5 6 70 26 38 6 48 87 5 65 5 5 5 5 5 5 5 5 100 100 34 5 5 5 2
100 100 100 100 30 3 5 5 5 4 0 5 6 17 66 5 48 70 81 96 90 17 68 86 5 5 5 5 5 5 38 100 100 98 6 7 5 5
100 100 82 3 5 5 5 5 5 1 0 0 5 4 4 38 96 99 100 97 70 5 5 92 5 5 5 5 5 17 75 56 93 6 100 54 5 5
17 79 83 4 0 5 5 5 5 5 5 2 5 5 5 5 48 100 90 96 87 20 38 89 88 22 5 5 5 7 5 89 32 100 20 8 5 11
51 83 5 0 5 5 5 5 5 5 5 5 5 1 0 2 3 36 94 100 100 71 97 61 44 97 61 6 45 5 5 84 100 65 31 6 100 30
17 10 5 4 1 5 9 6 5 25 84 5 5 5 5 5 1 5 5 45 94 94 14 100 78 100 100 21 5 5 12 91 86 37 20 74 100 100
57 98 48 6 5 5 28 68 94 79 61 10 21 9 5 5 5 5 5 5 6 65 5 44 100 100 100 97 80 6 93 100 100 100 100 99 99 100
88 82 99 7 5 15 63 44 65 30 64 98 84 6 32 8 5 5 0 5 67 48 5 27 98 79 97 100 96 13 97 100 100 100 100 100 100 100
97 93 85 79 9 14 54 19 5 62 100 100 99 44 67 5 5 5 5 5 46 98 40 38 85 100 96 96 97 45 40 100 100 100 100 100 100 100
99 86 95 95 74 26 87 56 6 74 100 100 89 64 76 55 25 5 7 5 36 88 100 80 89 62 79 100 100 99 100 100 100 100 100 100 100 100
100 78 100 100 100 42 66 52 6 40 76 70 92 97 87 72 70 11 5 13 5 31 82 94 78 97 80 80 92 100 100 100 99 100 100 100 100 100
100 72 100 100 78 97 90 81 28 10 45 46 57 100 54 67 70 59 53 56 5 5 76 78 62 100 94 100 78 92 100 98 76 100 100 100 100 100
100 99 100 100 91 95 73 98 82 72 88 70 62 67 61 71 78 67 39 100 86 5 20 82 91 85 100 99 95 99 88 85 91 88 100 100 100 100
100 100 100 100 100 97 82 92 84 65 59 99 100 100 62 74 77 51 71 82 92 8 5 73 96 89 100 100 100 100 98 96 98 98 99 94 98 100
100 100 100 100 100 100 100 100 99 100 99 100 100 100 85 93 65 26 59 96 87 66 6 7 97 100 99 100 100 100 98 96 57 91 90 98 99 92
100 100 100 100 100 100 100 100 100 99 100 100 90 94 97 82 51 50 71 87 85 5 5 5 45 100 100 100 100 100 100 100 83 22 7 16 96 97

GFSNE_prec_cloud_039.txt.gz
Cloud_Cover
98 59 72 100 100 100 100 100 100 100 100 100 100 100 100 100 98 7 0 0 0 3 4 5 5 54 99 95 100 100 100 100 100 100 100 100 100 100
80 100 100 100 100 100 100 100 100 100 90 87 100 100 97 97 1 0 0 0 0 0 5 5 5 46 95 92 97 99 100 100 100 100 100 100 100 100
92 100 87 79 88 100 100 100 100 85 89 98 100 100 18 0 0 0 0 0 1 0 5 5 5 24 5 5 5 5 23 15 5 9 95 100 100 100
15 83 100 100 100 100 83 99 100 100 100 100 33 5 0 0 0 4 0 0 0 0 5 4 1 5 5 5 5 5 5 5 5 5 5 5 17 99
90 65 96 100 100 100 100 100 100 100 87 43 3 0 5 0 0 1 5 0 2 2 0 0 0 0 5 5 5 5 5 5 5 5 5 5 5 5
68 100 100 100 100 100 98 23 3 2 1 5 5 3 5 2 5 5 5 5 0 0 0 0 4 3 5 5 5 5 5 5 5 5 5 25 5 5
99 100 100 83 9 5 5 0 0 5 5 5 5 4 5 5 11 5 5 5 5 2 4 4 5 5 5 5 5 5 5 5 5 5 5 83 5 4
45 89 82 65 5 5 5 1 5 5 5 45 5 5 5 5 5 14 22 98 94 7 5 34 5 5 5 5 5 5 5 5 5 5 100 97 41 31
97 87 74 5 75 99 15 5 5 5 5 5 5 5 5 5 31 88 97 100 100 23 16 56 5 5 5 5 5 5 5 5 5 54 99 94 6 5
77 70 93 64 39 50 5 5 5 5 5 5 3 5 5 5 10 72 96 73 26 5 5 92 5 5 5 5 5 5 5 10 28 44 5 5 5 18
89 99 82 30 5 5 5 5 5 5 5 5 5 5 5 5 5 5 5 96 93 53 5 98 10 5 5 5 5 5 5 4 1 5 5 51 92 100
99 89 99 48 5 5 5 5 5 5 5 5 5 5 5 5 5 5 5 100 100 75 81 21 15 92 71 5 10 32 5 2 5 4 5 22 24 10
97 84 62 89 5 5 5 5 5 6 12 6 5 5 12 6 5 5 5 5 99 100 52 100 70 91 100 74 5 82 5 5 50 41 63 100 86 38
39 32 84 98 28 22 5 5 5 5 5 78 94 58 35 18 5 5 5 5 11 100 95 100 99 97 100 95 90 64 5 5 17 95 100 96 100 100
86 38 91 100 98 100 75 53 16 5 19 91 29 6 5 5 9 5 5 5 5 5 5 65 100 100 100 100 99 86 92 17 72 100 100 100 100 100
46 70 73 100 100 100 81 70 77 28 25 24 18 21 8 34 85 7 58 5 38 5 5 100 99 100 67 99 100 98 98 98 52 100 100 100 100 100
95 100 100 100 100 100 75 93 96 94 78 67 56 21 5 75 60 47 46 40 78 6 5 40 86 83 77 81 76 99 100 95 78 100 100 100 100 100
100 84 98 100 100 100 100 91 88 72 43 11 5 5 18 96 53 54 62 82 97 39 5 28 79 88 95 100 97 98 70 93 98 100 100 100 100 100
100 100 93 95 100 100 100 100 92 94 69 54 12 9 93 94 74 69 70 78 74 25 5 5 39 88 100 92 98 95 99 95 100 100 100 100 100 100
100 100 100 88 100 100 100 100 100 100 91 64 52 90 100 100 77 74 62 97 100 54 6 5 35 90 100 100 100 92 100 99 98 100 100 100 100 100
100 100 100 97 100 100 100 100 100 100 94 89 83 66 100 100 96 72 68 58 97 42 27 5 22 100 100 100 99 100 99 100 100 100 97 100 100 100
100 100 89 86 100 100 100 100 100 100 100 99 66 61 98 100 94 71 76 93 83 91 11 5 5 61 91 100 100 100 96 96 97 99 100 100 100 100
100 100 87 100 100 100 100 100 100 100 100 100 96 84 98 97 100 54 53 73 89 60 17 5 5 5 62 100 100 100 97 100 95 100 85 87 98 98

GFSNE_prec_cloud_045.txt.gz
Cloud_Cover
34 53 40 29 28 47 79 90 7 5 4 17 27 10 1 0 0 0 0 0 0 0 0 2 5 5 5 8 75 94 100 100 100 100 100 100 98 100
99 98 100 66 98 100 100 38 10 27 5 5 5 5 2 0 0 0 0 0 0 0 2 5 5 5 5 30 49 29 38 57 100 100 100 100 100 100
58 99 100 93 20 5 5 5 5 47 58 5 5 5 0 0 0 0 0 0 0 0 5 4 5 5 5 5 5 5 5 10 77 100 100 100 100 100
100 84 95 65 10 5 13 17 5 5 5 5 5 5 5 4 0 0 0 0 0 0 0 5 6 12 5 5 5 6 50 71 92 88 100 100 100 100
90 87 61 41 29 62 38 6 5 5 5 5 5 5 5 5 2 0 0 2 0 0 0 4 5 5 5 5 5 5 5 5 22 48 54 12 30 19
96 100 98 76 97 100 69 5 5 5 13 8 5 5 5 5 5 0 1 0 0 1 4 5 2 5 5 5 5 5 5 5 5 11 48 5 5 5
100 99 97 100 100 100 14 50 58 5 39 85 66 5 5 5 0 0 5 1 5 5 5 97 5 16 5 5 4 5 5 5 9 34 72 47 5 5
100 100 100 100 100 94 64 74 90 56 56 100 89 14 5 5 0 5 5 5 5 5 51 65 5 5 5 5 0 5 5 16 51 10 5 9 26 5
100 100 100 98 43 82 54 87 94 99 8 7 71 33 89 6 2 5 38 61 66 5 13 62 5 54 51 5 0 4 5 5 5 5 5 6 65 5
91 100 54 5 25 89 79 83 100 78 54 5 5 5 37 1 6 83 100 95 86 58 38 87 20 92 82 5 0 3 5 5 5 5 5 5 5 5
74 70 4 4 5 16 74 98 61 97 8 5 5 5 5 4 22 83 100 98 88 70 23 97 96 90 68 23 13 5 5 5 5 5 5 5 5 5
39 2 0 0 5 52 38 65 80 9 84 5 5 5 5 5 5 5 83 100 100 94 35 80 99 98 93 10 100 98 49 5 5 5 5 5 5 11
5 5 5 1 5 15 88 98 99 100 83 69 60 10 26 5 34 81 77 99 100 86 84 89 100 100 100 96 99 100 97 80 83 87 92 9 5 12
5 5 5 5 5 5 76 90 95 100 100 99 95 92 84 56 58 88 75 85 100 77 89 100 100 100 100 100 98 97 100 100 100 100 100 42 16 42
78 5 5 5 73 30 98 95 100 100 100 100 98 97 82 73 100 33 38 88 98 56 12 87 91 100 100 100 100 100 96 80 100 100 72 96 75 72
52 97 100 99 96 100 100 100 100 100 100 100 100 100 100 89 100 71 97 100 99 60 68 30 29 44 13 5 49 97 99 100 68 88 100 98 100 100
83 98 100 100 100 100 100 100 100 100 100 100 100 100 100 100 100 95 96 97 100 96 68 75 78 5 89 95 94 99 100 100 100 100 100 100 100 100
22 100 100 100 100 100 100 100 100 100 100 100 100 100 100 100 100 100 98 100 100 98 77 93 89 30 96 64 67 100 100 100 100 100 100 100 100 100
46 11 86 100 94 98 100 100 100 100 100 100 100 100 100 100 100 98 100 100 100 96 74 98 89 21 100 100 99 97 100 99 100 100 100 100 100 100
100 73 70 89 97 100 100 100 100 100 100 100 100 100 100 100 100 99 100 99 100 96 53 74 54 8 92 100 100 94 93 100 100 100 100 99 100 100
100 100 100 100 100 100 100 100 100 100 100 100 100 100 100 100 100 100 99 81 65 96 12 31 12 5 14 92 100 100 97 79 90 99 100 100 93 100
100 100 74 100 100 100 100 100 100 100 100 100 100 100 100 100 100 100 95 100 94 98 54 47 52 6 36 99 100 100 100 100 82 94 90 94 100 100
100 100 100 100 100 100 100 100 100 100 100 100 100 100 100 100 100 100 100 95 100 100 75 37 53 42 10 10 74 99 100 99 100 100 100 19 98 99

GFSNE_prec_cloud_048.txt.gz
Cloud_Cover
100 100 100 100 77 78 64 70 73 62 16 5 5 28 42 98 90 5 4 0 0 0 0 0 1 3 5 5 21 74 95 100 100 100 100 100 100 100
100 100 100 100 100 96 82 100 88 61 22 28 25 69 97 59 64 5 3 0 0 0 0 0 5 5 5 5 9 25 25 7 81 100 100 100 100 100
100 96 100 96 100 100 100 100 100 100 96 83 72 98 100 84 66 5 5 0 0 0 0 0 4 5 5 5 5 5 31 76 98 100 100 100 100 100
100 100 100 100 99 100 100 100 100 100 100 80 94 89 100 100 99 22 5 0 0 0 0 0 2 5 5 5 5 33 11 5 5 34 93 100 100 100
100 100 100 100 100 100 100 100 100 100 100 100 100 100 100 100 100 88 5 0 0 0 0 0 0 2 5 5 5 5 5 5 5 5 7 58 34 93
100 100 100 100 100 100 100 100 100 100 100 100 100 100 100 100 100 82 5 0 0 0 0 0 4 3 4 12 5 5 5 5 5 5 5 5 5 5
100 100 93 100 100 100 100 75 100 100 100 100 100 100 100 100 100 100 17 1 0 4 5 5 5 6 14 97 85 61 11 5 5 59 69 87 5 5
99 74 65 91 100 100 74 50 37 97 99 100 100 100 100 100 100 100 14 4 4 5 5 5 5 5 45 87 98 5 2 5 5 6 64 88 13 5
97 100 100 100 98 86 44 6 14 91 71 64 100 100 100 100 100 98 5 5 5 14 5 5 29 36 80 100 100 5 4 5 5 5 5 5 5 5
74 81 97 100 77 20 5 23 52 93 82 72 70 62 100 100 100 54 5 59 66 49 67 10 36 80 100 100 78 5 5 5 5 5 5 5 5 5
89 84 75 14 5 10 19 10 6 95 71 96 19 100 5 5 5 8 16 89 98 55 87 66 72 74 99 100 100 100 93 5 5 5 5 5 5 5
7 30 16 5 10 11 5 5 50 22 100 100 65 7 46 44 35 33 53 100 100 98 84 38 70 80 89 99 100 100 100 100 33 35 35 95 74 82
20 5 16 62 6 4 5 5 5 58 99 99 100 100 99 100 100 94 100 100 100 100 100 64 86 98 100 100 100 100 100 100 98 99 100 86 79 37
94 65 67 86 98 76 87 8 61 80 98 100 100 100 100 100 100 100 100 100 100 99 100 90 100 100 100 100 100 100 100 100 100 92 94 98 98 94
28 27 19 85 100 100 100 100 100 100 100 100 100 100 100 100 100 99 100 100 100 100 100 80 100 100 100 100 100 100 100 100 100 100 89 76 95 97
5 5 8 69 79 73 100 91 81 100 100 100 100 100 100 100 100 100 100 100 100 100 100 96 99 100 100 100 100 100 100 100 96 96 100 97 98 100
75 11 5 9 5 26 88 84 100 100 100 100 100 100 100 100 100 100 100 100 100 100 100 100 100 100 100 99 100 100 100 100 100 100 86 100 100 100
76 86 27 8 5 5 27 100 100 100 100 100 100 100 100 100 100 100 100 100 100 100 100 100 100 100 100 100 97 100 100 100 100 100 96 100 100 100
99 98 79 94 100 99 100 100 100 100 100 100 100 100 100 100 100 100 100 100 100 100 100 100 100 100 100 100 100 72 96 100 100 100 100 100 100 100
100 100 100 100 100 82 94 100 100 100 100 100 100 100 100 100 100 100 100 100 100 100 100 97 94 100 99 99 100 86 43 80 100 100 100 98 93 99
100 100 100 100 100 92 100 100 100 100 100 100 100 100 100 100 100 100 100 100 100 100 100 95 87 8 5 74 98 100 100 63 57 86 100 100 96 100
100 100 100 100 100 100 100 100 100 100 100 100 100 100 100 100 100 100 100 100 100 100 100 98 38 41 46 99 100 98 99 99 95 75 76 50 100 100
100 100 100 100 100 100 100 100 100 100 100 100 100 100 100 100 100 100 100 100 100 100 100 99 68 50 41 62 50 100 100 98 100 100 100 7 64 49

GFSNE_prec_cloud_051.txt.gz
Cloud_Cover
98 100 100 99 100 100 100 100 100 90 100 100 100 100 83 90 55 7 5 5 5 0 0 0 0 0 5 5 5 5 5 6 84 100 100 100 100 100
100 100 100 99 100 97 98 100 100 100 90 100 100 100 100 100 63 5 5 5 6 5 0 0 0 0 5 5 5 5 5 36 80 100 100 100 100 100
100 100 100 100 100 100 93 88 100 100 100 100 100 100 100 50 45 28 93 21 57 14 0 0 0 0 0 5 5 5 5 33 100 100 100 100 100 100
100 100 100 100 100 100 100 100 100 100 98 96 100 100 97 77 9 6 10 14 65 88 1 0 0 0 0 0 4 5 5 5 6 8 10 100 100 100
100 100 100 96 100 98 100 100 100 96 100 100 66 89 22 53 61 12 78 71 6 16 0 0 0 0 0 0 0 0 5 5 5 5 5 5 43 71
100 100 100 100 94 92 100 100 100 100 99 49 61 27 16 59 78 73 39 96 100 37 5 4 3 3 5 5 5 2 5 5 54 40 23 21 63 79
100 100 100 76 97 100 100 100 100 100 80 32 10 5 70 90 96 100 64 46 46 70 5 11 22 21 5 5 52 97 60 9 5 5 38 87 99 95
89 84 100 99 100 100 100 100 100 97 99 63 5 5 7 92 36 76 100 82 96 24 96 5 74 14 70 10 99 5 5 5 0 4 5 38 5 5
72 45 79 94 99 100 93 34 55 11 5 5 5 5 15 66 21 100 100 99 97 65 92 7 48 19 71 68 92 70 6 5 2 5 5 5 5 5
22 60 52 76 66 30 7 8 5 5 5 24 5 4 15 17 74 100 98 53 5 5 91 69 74 25 35 12 5 17 13 9 5 5 5 3 0 5
73 97 46 5 37 36 23 5 5 5 5 84 35 78 9 64 99 100 73 100 5 31 97 94 77 13 65 5 98 96 6 12 88 7 5 5 5 5
68 74 61 33 28 6 75 30 5 5 5 5 94 10 10 23 64 100 56 96 81 18 100 100 98 92 14 12 82 41 49 14 50 27 7 5 9 56
9 10 19 34 5 87 90 100 93 34 6 5 46 93 82 93 38 83 100 100 100 81 100 100 97 99 100 59 44 79 61 37 16 97 5 75 43 31
5 25 8 5 4 2 24 57 94 100 100 100 100 98 100 100 89 100 96 26 27 52 100 96 50 100 98 52 92 37 96 54 36 64 20 69 6 42
5 5 5 5 5 5 30 28 89 100 100 100 100 100 100 84 100 100 99 100 100 99 100 93 64 100 99 70 92 71 96 81 61 88 99 6 83 97
5 5 5 5 5 5 5 5 30 76 100 100 98 94 96 100 98 100 100 100 100 100 100 93 65 45 98 100 99 91 100 97 67 99 54 63 100 100
6 5 25 75 86 85 88 87 7 34 70 100 100 100 100 100 100 100 100 100 100 100 100 80 97 77 52 46 43 99 100 99 94 89 42 96 100 100
34 20 41 60 83 70 62 42 84 70 76 100 100 100 100 100 92 100 98 100 100 100 100 86 96 100 94 48 98 100 100 99 96 96 95 81 100 100
88 83 94 100 95 100 97 94 100 99 100 99 100 100 100 100 96 100 100 100 100 100 100 98 94 99 100 100 97 89 67 97 100 100 100 100 95 100
100 100 100 100 100 100 100 100 89 100 100 76 95 100 100 100 98 100 100 100 100 100 100 92 97 96 100 87 46 14 21 69 98 100 100 95 37 99
100 100 100 100 100 100 100 99 99 100 100 100 100 100 100 59 99 100 100 100 100 100 100 99 96 34 17 5 46 13 100 40 81 51 92 86 93 100
100 100 100 100 100 100 100 100 100 100 100 100 100 100 100 92 90 100 100 100 100 100 100 100 99 51 61 94 80 89 90 90 10 42 22 27 77 96
100 100 100 100 100 100 100 100 100 100 100 100 100 100 100 100 100 100 100 100 100 100 100 100 97 95 88 87 70 49 97 96 92 97 53 45 10 5

GFSNE_prec_cloud_054.txt.gz
Cloud_Cover
100 100 100 100 100 100 100 100 100 28 60 70 92 99 93 60 5 5 5 5 5 5 4 2 0 0 0 0 0 3 5 5 5 38 85 100 100 100
100 100 100 100 100 100 100 90 100 100 18 5 21 70 53 5 15 12 7 5 5 5 0 0 0 0 0 0 0 0 5 5 5 26 90 100 100 100
100 100 100 100 100 98 100 100 100 96 72 5 5 17 48 99 100 100 88 5 0 0 0 0 0 0 0 0 0 0 0 5 5 55 100 100 100 100
100 100 100 100 100 99 74 86 82 94 100 8 5 76 100 86 44 21 5 4 2 0 0 0 0 0 0 0 0 0 0 1 5 14 34 98 100 100
100 100 100 100 100 100 100 93 97 100 98 76 47 35 5 5 5 56 1 5 5 5 52 5 4 3 0 1 4 3 5 2 5 5 5 5 7 36
100 100 100 100 100 100 99 90 99 94 100 93 19 6 24 44 97 63 5 5 34 20 76 5 5 0 4 15 5 3 15 58 10 5 5 5 5 73
100 100 100 100 100 94 100 78 75 62 64 6 14 71 80 7 92 100 100 61 65 30 13 5 3 0 5 4 4 13 47 72 5 5 5 5 5 47
100 54 55 98 96 48 53 70 67 5 5 5 5 5 5 38 50 100 16 82 54 31 100 53 5 0 1 5 18 100 94 5 86 14 5 5 5 5
5 5 5 5 5 5 5 5 9 8 35 14 74 5 5 2 7 94 46 12 55 23 64 5 5 5 5 43 54 5 5 5 88 60 6 5 5 0
32 6 5 5 5 13 49 28 29 22 29 26 29 26 5 5 8 19 79 11 5 81 100 43 6 5 5 66 100 7 4 58 5 28 48 5 5 5
32 100 22 5 7 16 20 5 5 5 5 5 12 41 36 46 47 99 100 96 9 76 100 7 5 5 6 98 88 5 5 7 21 100 99 89 84 5
5 5 18 77 88 69 5 10 78 80 97 51 30 97 94 16 52 95 97 100 68 84 99 50 5 38 51 100 58 3 5 52 98 100 100 100 100 49
9 40 48 46 5 5 5 5 2 1 5 56 86 100 100 100 100 6 95 100 100 78 94 74 10 62 69 11 48 4 5 5 64 58 38 73 93 98
48 14 9 5 5 5 5 5 5 5 55 85 100 97 100 100 100 99 93 100 19 79 100 98 45 93 99 92 5 5 5 5 6 5 76 90 58 46
50 48 5 5 5 5 6 94 97 96 90 80 92 73 97 100 74 100 100 60 50 47 18 54 100 96 88 31 5 5 5 5 7 86 53 72 86 100
23 27 17 17 7 5 5 5 14 93 100 100 94 44 52 100 100 100 100 100 100 90 100 100 85 99 95 25 5 5 5 69 8 76 59 7 94 100
7 51 14 5 5 5 5 5 5 32 91 98 87 96 67 99 100 100 100 100 99 40 84 100 100 100 99 29 6 8 33 37 100 40 5 6 98 100
9 5 5 5 5 5 11 37 5 94 80 98 98 100 100 100 100 100 100 95 100 66 73 100 100 100 100 95 38 72 97 92 68 72 94 51 100 100
49 6 10 5 5 74 86 99 99 100 96 100 100 100 100 100 100 100 100 95 100 98 99 100 99 100 87 59 42 34 6 5 61 100 100 99 100 99
28 61 5 5 55 89 68 100 100 100 100 100 100 100 100 100 100 100 100 81 97 84 91 100 99 100 79 94 34 38 6 26 89 99 100 41 10 90
95 56 7 22 65 86 77 97 100 100 100 100 100 100 100 100 100 100 100 88 94 100 95 100 99 100 100 89 58 37 22 82 82 88 24 47 50 60
82 58 59 56 67 86 77 93 100 100 100 100 100 100 100 100 94 100 100 97 93 100 100 100 100 100 87 82 54 53 95 95 82 31 90 48 59 61
29 100 98 14 78 100 100 61 100 92 100 100 100 100 100 100 100 100 100 96 99 100 100 100 100 100 100 82 75 59 57 54 98 51 31 58 50 40

GFSNE_prec_cloud_057.txt.gz
Cloud_Cover
100 100 100 100 100 100 100 100 100 100 98 99 87 98 48 6 46 12 36 5 5 5 0 0 5 4 0 0 0 0 0 0 5 5 5 6 65 80
100 100 100 100 100 100 100 100 100 99 87 33 33 47 69 5 5 5 5 5 5 1 5 5 4 0 0 0 0 0 0 0 0 5 5 57 99 100
100 100 100 100 100 100 100 77 81 100 88 33 25 8 9 5 84 67 12 3 5 5 5 1 0 0 0 0 0 0 0 0 0 1 5 80 100 100
100 100 100 100 100 100 96 100 100 100 100 94 6 17 23 82 82 39 5 5 5 5 42 4 5 5 4 0 0 0 0 0 0 1 5 5 5 14
100 100 100 100 100 100 100 100 100 100 100 100 78 24 5 24 55 66 12 93 100 100 100 5 10 5 5 0 5 1 0 0 0 4 5 5 5 5
93 100 100 100 100 90 100 100 91 76 90 100 100 95 99 53 91 65 84 44 96 58 100 72 10 47 100 10 73 1 0 0 0 5 5 5 10 5
100 100 100 94 15 8 69 39 11 25 40 5 5 5 6 5 5 3 5 20 98 100 100 100 93 95 99 72 74 0 0 1 5 5 5 5 15 54
100 78 5 5 5 6 24 28 24 8 7 6 6 37 5 5 5 5 5 6 95 25 100 100 76 15 60 10 5 4 2 5 5 5 5 5 51 5
5 5 5 5 5 5 7 5 5 6 12 75 100 97 86 22 35 12 58 99 100 100 100 69 26 5 77 13 5 2 21 5 5 4 5 5 5 6
33 11 36 42 5 5 5 5 10 100 100 67 65 22 44 39 78 5 27 100 100 100 100 98 38 26 88 5 3 62 34 5 5 5 5 77 96 100
5 7 5 17 5 5 17 92 100 100 100 100 91 5 15 81 100 89 87 97 16 13 82 99 5 32 68 5 5 78 5 5 5 1 23 22 99 100
87 92 100 27 21 55 21 62 99 95 77 76 5 5 5 5 5 74 98 100 100 90 100 100 59 86 12 5 38 93 14 5 5 0 5 61 100 80
100 100 100 100 100 93 95 100 67 25 80 59 67 38 5 5 17 94 52 100 100 100 100 100 50 58 5 5 16 100 28 5 5 4 4 5 8 99
100 100 100 99 100 100 100 44 61 6 35 59 70 44 59 46 5 7 96 80 96 100 100 94 42 55 7 5 52 99 36 5 5 5 5 56 18 89
100 82 85 75 80 100 100 11 18 11 5 67 98 100 85 36 98 95 52 100 99 71 68 100 60 13 5 47 96 100 6 5 5 11 18 5 6 82
100 100 100 100 100 100 43 60 37 43 43 100 100 100 100 91 71 91 67 100 100 97 100 84 100 97 9 88 82 91 5 68 5 5 63 8 7 97
100 100 100 100 100 100 78 98 99 100 85 100 100 100 100 100 92 92 100 100 100 100 100 78 100 91 52 55 67 35 9 5 45 68 42 6 56 66
100 100 100 100 100 94 97 100 100 92 100 100 100 100 100 100 99 100 100 100 100 100 100 98 100 89 64 100 36 56 11 6 43 57 5 67 100 34
100 100 100 100 100 99 86 100 100 100 100 100 100 100 100 100 100 98 100 100 100 100 100 100 100 95 100 100 86 38 77 8 5 5 93 97 10 65
100 100 100 100 100 100 100 100 100 100 100 100 100 100 100 100 98 100 100 100 100 100 88 97 81 82 100 99 68 64 37 44 23 33 7 22 5 57
100 100 100 98 100 100 86 56 64 73 100 88 100 100 100 100 100 100 100 86 65 98 97 81 98 95 100 100 95 78 56 48 28 49 10 72 88 58
100 80 91 100 100 69 56 98 50 37 100 95 100 100 100 100 100 100 100 100 100 100 80 98 99 100 100 100 99 65 54 64 52 81 41 66 89 91
100 100 100 100 57 45 99 43 5 86 90 100 100 100 100 100 100 100 100 100 100 87 100 100 100 100 100 97 100 71 60 52 46 32 66 96 20 81

GFSNE_prec_cloud_060.txt.gz
Cloud_Cover
100 100 100 100 100 100 100 100 100 100 100 100 100 56 63 90 47 12 10 5 100 98 92 5 5 3 3 0 0 0 0 0 0 0 5 5 5 35
100 100 100 100 100 100 100 100 100 100 100 100 100 71 32 77 98 57 5 5 33 100 100 17 3 5 5 17 1 0 0 0 0 0 5 5 27 86
100 100 100 100 100 100 100 100 100 100 100 100 100 100 42 5 6 24 14 47 76 100 100 10 5 31 32 98 5 0 5 5 0 0 1 5 7 91
100 100 100 100 100 100 100 100 100 100 100 100 100 100 46 28 97 99 78 77 58 43 83 99 63 100 100 100 100 10 5 97 5 1 0 1 1 5
100 100 100 100 100 100 100 100 100 100 95 87 73 92 95 39 5 16 13 73 72 65 5 79 100 100 100 100 100 100 74 58 60 4 0 0 0 5
100 100 100 100 100 100 100 82 100 68 34 30 52 18 7 25 5 5 5 27 5 17 5 5 59 75 100 100 100 100 100 100 22 0 2 30 5 5
100 100 100 100 100 67 57 52 85 95 97 96 93 84 55 5 5 8 83 87 33 32 5 20 52 44 100 100 100 100 100 25 5 4 0 4 5 5
100 100 100 86 7 10 5 5 5 17 38 48 80 98 97 9 70 100 100 99 68 5 14 5 100 80 100 100 100 100 48 5 5 4 5 5 5 11
100 72 34 18 5 5 5 5 19 72 63 70 84 69 55 82 54 98 100 100 55 48 61 18 74 100 100 100 100 92 5 84 4 5 5 5 5 1
5 5 5 5 5 5 22 5 100 100 87 100 79 100 94 51 94 99 10 58 84 100 82 100 53 98 88 77 60 99 78 69 5 5 6 5 4 0
65 32 5 5 5 38 5 52 100 100 100 100 100 100 76 100 100 66 100 100 77 6 64 55 75 98 98 68 69 98 6 5 24 47 63 5 1 0
5 5 5 5 5 25 66 70 89 97 100 100 100 100 100 100 100 83 77 91 90 90 5 100 79 100 100 95 100 100 47 4 5 52 72 5 0 4
98 58 35 49 62 69 44 13 62 100 100 55 100 98 99 84 87 75 89 100 100 91 97 66 100 100 100 100 100 75 8 3 5 83 5 5 2 5
100 100 100 97 100 98 76 97 100 100 100 100 100 89 31 97 43 92 12 62 97 96 93 100 100 100 100 99 27 11 5 20 18 89 6 60 14 58
100 100 100 100 100 100 100 100 100 100 100 100 100 100 90 76 99 97 41 7 75 97 99 100 100 100 83 99 66 5 5 72 90 39 100 22 12 10
100 100 100 100 100 99 91 100 100 100 100 100 100 100 100 100 100 100 100 76 99 86 100 100 100 100 100 28 77 68 34 97 97 55 8 69 5 30
100 88 100 100 74 86 100 100 100 100 100 100 100 100 100 100 100 100 100 100 100 98 87 99 100 95 99 100 83 99 100 100 90 28 25 24 5 5
99 100 100 100 100 100 100 100 100 100 100 100 100 100 100 100 100 98 97 100 100 100 100 100 100 100 100 68 86 81 100 100 40 44 15 73 64 18
100 100 100 100 100 100 100 100 100 100 100 100 100 94 100 100 100 100 98 99 100 100 100 100 100 100 100 95 93 69 100 67 20 41 45 20 7 40
100 100 100 100 100 100 100 100 100 100 100 100 92 94 100 100 100 100 100 96 100 100 100 100 99 86 42 100 95 98 100 100 60 58 43 32 5 5
100 100 100 100 100 100 100 100 100 100 100 90 75 100 91 98 100 100 100 100 100 100 100 100 97 100 100 100 100 100 100 100 11 49 40 75 74 40
100 100 100 100 100 100 100 100 100 99 50 100 100 100 83 100 100 100 100 100 100 100 100 100 100 98 100 100 100 100 72 57 37 33 40 38 31 68
100 100 100 100 100 100 100 100 47 75 84 100 100 100 100 100 100 100 100 100 100 100 100 100 100 100 100 100 100 100 76 66 59 65 88 31 5 13

GFSNE_prec_cloud_063.txt.gz
Cloud_Cover
100 100 100 100 100 100 100 100 100 100 100 100 100 97 94 58 60 98 100 84 98 100 100 100 100 100 100 99 84 5 5 5 5 0 0 2 5 5
100 100 100 100 100 100 100 100 100 100 100 100 56 100 100 94 74 53 54 86 99 99 100 100 100 100 100 100 100 94 99 19 87 74 22 4 5 14
100 100 100 100 100 100 100 100 100 100 100 100 100 100 96 100 100 27 18 73 5 8 98 100 100 100 100 100 100 100 100 100 100 100 100 9 5 25
100 100 100 100 100 100 100 100 100 100 100 100 100 100 100 92 47 33 100 35 99 100 100 100 100 100 100 99 98 100 100 100 100 100 100 68 30 5
100 100 100 100 100 100 100 100 100 100 90 100 100 91 77 48 48 100 93 70 58 100 94 100 64 5 6 21 5 44 96 100 100 100 100 66 83 5
100 100 100 100 100 100 100 100 98 100 84 90 100 100 100 100 97 17 5 7 97 92 100 100 5 33 87 8 5 23 100 100 100 100 100 100 64 21
100 100 100 100 100 100 100 100 53 100 100 90 80 89 46 60 100 99 53 35 19 100 100 100 46 83 6 5 5 10 85 100 100 100 100 100 13 1
100 100 100 100 100 100 56 39 38 85 77 92 84 89 98 100 97 79 75 8 100 100 82 5 5 5 5 5 5 86 100 100 100 100 52 5 0 5
100 100 100 100 87 43 59 54 47 25 5 22 77 100 88 100 62 60 48 16 96 100 45 5 33 23 5 5 36 100 49 32 89 94 6 5 5 5
100 100 100 37 5 54 41 50 69 100 100 100 92 99 100 50 36 50 87 100 100 100 82 97 89 41 5 5 60 100 75 5 95 100 78 5 5 22
61 41 23 52 88 99 89 98 100 100 100 100 100 100 97 98 96 50 84 100 100 100 100 26 48 23 68 5 28 100 100 100 100 94 5 44 7 29
5 42 29 94 95 100 100 100 100 100 100 100 100 100 100 100 100 100 100 100 100 96 100 57 6 62 100 55 18 100 96 100 91 19 23 13 7 61
5 68 79 94 100 88 87 92 78 84 94 99 100 100 100 100 100 100 100 100 98 93 100 99 91 81 100 93 70 100 100 92 82 5 5 3 90 48
100 78 85 95 99 100 94 99 87 66 80 73 82 97 95 100 100 100 100 100 100 100 98 90 100 82 100 100 100 100 100 99 69 5 5 74 94 5
100 100 100 100 86 100 100 100 100 93 93 100 93 100 100 100 100 100 100 79 100 89 5 97 100 99 100 100 100 100 100 26 51 5 78 85 12 42
100 100 100 100 100 100 100 100 100 100 100 100 100 100 100 100 100 100 100 100 100 12 84 99 100 100 100 100 100 97 100 68 5 44 71 58 48 65
100 100 100 100 100 100 100 100 100 100 100 100 100 100 100 100 100 100 100 100 100 99 69 100 100 100 98 100 99 95 100 5 17 96 88 78 26 34
100 100 100 100 100 100 100 100 100 100 100 100 100 100 100 100 100 100 100 100 100 94 100 96 100 100 100 100 100 96 66 5 32 100 100 91 73 80
100 100 100 100 100 100 100 100 100 100 100 100 100 100 100 100 100 100 100 100 100 96 98 100 100 100 100 100 100 47 60 36 100 100 77 76 52 98
100 100 100 100 100 100 100 100 100 100 100 100 100 100 100 100 100 100 100 100 100 95 97 100 100 100 100 100 93 69 60 62 100 79 64 65 43 77
100 100 100 100 100 100 100 100 100 100 100 100 100 100 98 100 100 100 100 100 100 100 98 100 100 94 94 90 89 100 96 100 100 92 84 74 72 67
100 100 100 100 100 100 100 100 100 100 100 100 100 95 91 82 100 100 100 100 100 100 100 100 100 99 91 98 100 88 81 100 100 100 100 81 52 70
100 100 100 100 100 100 100 100 100 100 99 78 100 92 93 100 100 100 100 100 100 100 100 100 100 100 100 100 100 62 100 100 100 100 100 100 35 72

GFSNE_prec_cloud_066.txt.gz
Cloud_Cover
100 97 100 100 100 100 100 100 100 100 100 100 100 100 96 91 75 72 100 94 98 100 100 100 100 100 100 100 98 100 100 40 97 57 100 23 7 5
100 100 100 100 100 100 100 100 100 100 100 100 100 88 100 74 42 88 35 73 100 97 100 78 90 96 100 100 99 100 79 96 100 100 100 100 99 70
100 100 100 100 100 100 100 100 100 100 100 100 100 100 100 83 72 60 95 62 26 21 64 100 100 83 96 68 100 100 100 100 99 100 100 100 100 100
100 100 100 100 100 100 100 100 100 100 100 100 100 100 89 78 6 100 98 70 77 90 100 100 100 94 88 96 100 53 72 98 68 52 93 100 100 100
100 100 100 100 100 100 100 100 100 100 100 100 100 100 100 100 83 79 94 24 87 100 100 100 97 100 100 100 100 5 15 100 32 15 99 100 100 85
100 100 100 100 100 100 100 100 100 100 100 100 95 100 96 68 16 46 94 100 100 100 100 100 100 100 100 100 66 6 100 97 67 48 100 100 100 100
100 100 100 100 100 100 100 100 100 100 100 90 85 65 49 30 19 40 93 100 100 84 95 100 100 100 100 69 6 92 100 96 28 97 100 100 100 100
100 100 100 100 100 100 100 100 100 100 96 100 28 74 76 39 7 15 12 29 46 98 98 100 61 12 8 5 79 100 100 89 26 100 100 100 100 100
100 100 100 100 100 100 100 100 100 76 65 45 96 90 86 98 62 45 69 89 99 83 66 39 5 5 5 79 100 88 45 46 100 100 59 5 5 5
100 100 100 100 100 100 99 100 60 66 42 85 100 100 94 75 50 99 100 68 60 25 8 59 5 8 5 100 100 100 8 96 99 100 91 65 9 88
100 100 100 100 100 100 85 80 54 100 78 89 96 97 99 70 13 5 87 94 22 66 67 46 5 49 15 100 95 7 5 9 100 98 92 60 100 60
100 100 100 100 95 69 92 100 100 95 94 100 100 100 86 100 100 100 64 94 96 34 89 5 6 40 91 44 5 5 6 75 100 100 100 100 94 38
86 63 40 46 60 98 100 98 100 100 100 100 100 100 100 100 100 100 100 100 100 99 100 87 96 100 99 72 5 29 78 100 100 100 100 100 63 16
98 98 86 80 99 100 100 100 100 100 100 100 100 100 100 100 100 100 100 100 100 100 100 100 100 100 96 99 93 61 100 97 100 100 100 86 19 3
100 100 100 98 100 100 100 100 100 100 100 100 100 100 100 100 100 100 100 100 94 100 100 100 100 100 100 100 95 78 100 100 92 57 16 4 4 5
96 100 100 100 100 100 100 100 100 100 100 100 100 100 100 100 100 100 84 92 97 100 100 100 100 100 100 100 100 100 100 77 70 8 5 5 5 26
100 100 100 100 100 100 100 100 100 100 100 100 100 100 100 100 100 100 100 100 100 100 100 99 100 91 100 100 100 100 100 94 100 9 5 5 66 46
100 100 100 100 100 100 100 100 100 100 100 100 100 100 100 100 100 100 100 100 100 100 91 5 23 97 100 100 91 97 100 100 97 29 5 15 87 52
100 100 100 100 100 100 100 100 100 100 100 100 100 100 100 100 100 100 100 100 97 99 84 54 99 100 100 100 100 100 100 100 99 21 15 11 96 53
100 100 100 100 100 100 100 100 100 100 100 100 100 100 100 100 100 100 100 100 100 99 94 48 97 100 100 100 100 98 100 66 52 68 28 66 100 50
100 100 100 100 100 100 100 100 100 100 100 100 100 100 100 100 100 100 100 100 100 100 100 76 100 100 100 100 100 100 62 93 52 96 57 81 65 34
100 100 100 100 100 100 100 100 100 100 100 100 100 100 100 87 100 100 100 100 100 100 100 98 100 100 100 100 84 76 81 81 99 100 98 78 59 26
100 100 100 100 100 100 100 100 100 100 100 99 70 100 80 100 100 100 100 100 100 100 100 100 100 100 100 100 96 88 80 90 100 100 100 99 100 70

GFSNE_prec_cloud_069.txt.gz
Cloud_Cover
49 64 94 100 97 97 100 100 100 100 100 100 100 100 100 100 100 90 88 100 90 63 84 90 97 100 100 100 100 100 100 100 99 39 22 54 100 100
57 83 100 100 100 100 100 100 100 98 100 100 100 100 100 100 81 96 100 90 85 95 40 34 99 97 100 100 100 100 94 49 61 100 84 100 100 100
100 100 100 96 98 100 100 100 100 100 100 100 100 100 99 59 52 100 100 91 100 23 62 100 100 100 100 100 100 96 21 98 35 34 24 100 18 83
100 100 100 100 100 100 100 100 100 100 100 100 100 95 77 99 98 96 95 99 60 99 100 100 100 89 96 82 96 9 5 5 5 5 5 5 5 12
100 100 100 100 100 100 100 100 100 100 99 100 100 100 100 100 100 100 95 94 89 79 99 100 96 39 98 57 7 8 27 99 75 100 100 5 5 5
100 100 100 100 100 100 100 100 100 100 100 100 100 100 93 100 100 91 90 66 97 100 94 93 55 93 100 24 59 89 100 100 100 100 83 13 5 5
100 100 100 100 100 100 100 95 100 100 100 100 100 100 100 98 50 78 89 100 98 100 100 100 100 80 99 98 100 100 100 100 75 10 5 5 72 44
100 100 100 100 100 100 100 100 100 100 100 100 99 100 100 46 100 100 100 100 100 86 70 97 54 18 100 100 100 100 99 5 5 5 9 15 100 100
100 100 100 100 100 100 100 100 100 100 100 100 100 100 65 100 90 96 99 75 31 85 10 7 43 98 100 100 100 100 100 19 5 5 8 83 100 98
100 100 100 100 100 100 100 100 100 100 100 100 78 100 100 98 63 98 73 29 62 96 92 22 96 100 99 100 100 100 45 4 5 44 5 89 100 98
100 100 100 100 100 100 100 100 100 100 73 66 96 100 100 66 96 76 45 26 20 100 100 97 100 42 100 100 100 10 5 5 15 5 37 100 100 100
100 100 100 100 100 100 100 100 100 83 73 100 99 88 94 90 72 40 49 87 40 100 100 100 92 64 38 91 12 5 92 36 17 100 100 100 100 100
100 100 100 100 100 100 100 100 100 100 100 100 100 100 88 89 77 65 62 100 100 100 100 58 94 100 100 82 5 26 67 85 75 100 100 87 100 100
100 100 100 100 100 100 100 100 100 100 100 100 100 100 100 99 100 100 100 100 100 100 100 100 91 90 100 100 90 18 94 87 96 100 99 100 98 12
100 100 100 83 100 100 100 100 100 100 100 100 100 100 100 100 100 100 100 100 100 100 100 100 100 99 100 100 96 88 98 97 96 90 61 74 93 42
100 100 100 100 100 100 100 100 100 100 100 100 100 100 100 100 100 100 100 100 99 100 100 100 100 100 100 100 100 94 93 100 46 5 76 36 5 5
100 100 100 100 100 100 100 97 100 100 100 100 100 100 100 100 100 100 100 94 97 100 100 100 100 99 100 100 100 96 100 100 100 68 32 14 30 35
100 100 100 100 100 100 100 100 100 100 94 100 100 100 100 100 100 100 100 100 100 100 100 100 46 100 94 100 97 100 100 100 100 94 96 100 100 62
100 100 100 100 100 100 100 100 100 100 100 100 100 100 100 100 100 100 100 100 100 66 70 14 50 100 100 98 97 100 100 100 100 99 100 100 86 100
100 100 100 100 100 100 100 100 100 100 100 100 100 100 100 100 100 100 100 100 94 63 20 5 40 100 100 100 100 100 100 100 100 100 100 97 38 62
100 100 100 100 100 100 100 100 100 100 100 100 100 100 100 100 100 100 100 100 100 100 97 15 44 99 100 100 100 100 100 100 100 98 100 98 100 100
100 100 100 100 100 100 100 100 100 100 100 100 100 100 100 100 100 100 100 100 100 100 100 100 99 100 100 100 100 100 100 100 100 95 71 84 100 100
100 100 100 100 100 100 100 100 100 100 100 100 100 100 100 100 100 100 100 100 100 100 100 100 100 100 100 100 100 100 100 90 100 100 100 100 100 82

GFSNE_prec_cloud_072.txt.gz
Cloud_Cover
100 100 100 100 100 72 79 100 100 99 100 100 100 100 100 100 100 100 100 100 55 5 9 100 6 5 62 100 100 86 97 100 100 29 23 100 100 100
96 95 96 100 100 86 86 98 100 100 100 100 100 100 100 100 100 100 100 70 5 5 92 50 96 97 100 99 87 100 98 62 8 32 100 100 100 63
49 25 55 84 100 82 100 100 100 100 100 100 100 100 100 100 97 93 64 5 82 60 97 100 100 100 100 24 66 100 20 11 43 100 100 100 100 100
66 99 100 100 100 100 100 100 100 100 100 100 100 100 100 100 100 66 62 100 100 42 100 100 100 100 100 69 88 91 91 100 100 59 14 47 84 98
92 100 100 100 100 100 100 100 100 100 100 100 100 100 100 87 100 100 100 100 78 69 100 100 50 48 88 100 95 44 5 5 5 46 9 98 100 100
100 100 100 100 100 100 100 100 100 100 100 100 100 64 80 91 100 100 100 100 79 100 100 87 99 85 51 46 65 53 43 6 5 38 99 100 100 100
100 100 100 100 100 100 100 100 100 100 100 100 100 90 99 100 100 100 95 100 100 100 88 99 52 70 95 70 100 100 98 100 100 100 100 100 83 41
100 100 100 100 100 100 100 100 100 100 100 100 100 100 100 100 100 100 100 100 100 95 100 94 100 100 93 99 100 100 100 97 98 100 100 96 60 6
100 100 100 100 100 100 100 100 100 100 100 100 100 100 100 100 100 97 95 97 87 92 50 21 100 100 100 100 100 100 100 42 5 5 59 5 5 63
100 100 100 100 100 100 100 100 100 100 100 100 100 100 100 100 100 93 90 72 93 98 99 100 100 100 100 100 100 100 54 50 38 5 39 5 5 24
100 100 100 100 100 100 100 100 100 100 100 100 100 100 100 100 100 100 100 94 100 100 100 100 75 100 100 97 100 99 100 95 59 29 5 68 20 78
100 100 100 100 100 100 100 100 100 100 100 100 100 100 100 100 88 100 94 100 100 100 87 100 100 96 31 99 100 100 100 98 8 27 5 93 100 100
100 100 100 100 100 100 100 100 100 100 100 100 98 99 100 100 100 100 100 100 100 100 100 80 50 96 53 52 100 100 96 95 100 89 99 74 99 96
100 100 100 100 100 100 100 100 100 100 100 100 100 100 100 92 100 100 100 100 100 100 100 98 41 94 92 100 100 96 100 100 100 99 92 77 98 100
100 100 100 100 100 100 100 100 100 100 100 100 98 88 100 100 100 100 100 100 100 100 100 100 100 100 100 66 48 100 80 79 98 97 98 93 100 100
100 100 100 100 100 100 100 100 100 100 100 100 100 100 100 100 100 100 100 100 100 100 100 100 100 100 100 100 82 36 98 99 97 94 100 100 100 100
100 100 100 100 100 100 100 100 100 100 100 100 100 100 100 100 100 100 100 100 100 100 100 100 100 100 74 33 38 95 100 73 99 100 100 95 90 100
100 100 100 100 100 100 100 100 100 100 100 100 100 100 100 100 100 100 100 100 100 100 100 100 66 5 5 6 42 64 96 90 100 97 100 99 99 92
100 100 100 100 100 100 100 100 100 100 100 100 100 100 100 100 100 100 100 100 100 100 81 89 60 46 44 50 25 72 100 100 100 100 100 100 100 100
100 100 100 100 100 100 100 100 100 100 100 100 100 100 100 100 100 100 100 100 100 100 96 17 68 95 100 100 98 27 100 100 100 100 100 100 100 84
100 100 100 100 100 100 100 100 100 100 100 100 100 100 100 100 100 100 100 100 100 100 100 100 100 98 100 100 100 87 98 100 100 100 100 100 100 100
100 100 100 100 100 100 100 100 100 100 100 100 100 100 100 100 100 100 100 100 100 100 100 100 100 100 100 100 100 100 91 100 100 100 100 100 100 100
100 100 100 100 100 100 100 100 100 100 100 100 100 100 100 100 100 100 100 100 100 100 100 100 100 100 100 100 100 100 100 100 100 100 100 100 93 99

GFSNE_prec_cloud_075.txt.gz
Cloud_Cover
98 100 100 100 100 100 100 100 100 99 100 93 36 66 78 79 40 70 79 100 100 100 100 41 5 5 5 20 5 36 98 100 50 100 41 79 32 58
100 100 100 100 100 100 100 96 86 54 100 100 58 92 99 62 69 100 100 100 100 100 62 28 7 13 98 85 93 100 93 48 85 21 75 94 90 100
100 100 100 100 75 64 100 45 100 100 100 100 100 99 100 100 100 100 100 100 94 92 100 5 87 94 100 97 98 100 100 66 86 57 100 90 6 60
88 79 70 87 98 100 93 100 100 100 100 100 100 100 100 100 100 100 100 100 74 70 100 100 100 100 100 100 100 100 100 100 64 40 100 100 100 100
98 98 100 99 90 100 100 100 100 100 100 100 100 100 100 100 100 100 100 100 100 100 100 100 100 100 100 100 100 100 100 96 100 100 100 100 100 45
99 100 100 100 100 100 100 100 100 100 100 100 100 100 100 100 100 100 100 100 100 100 100 100 99 100 100 100 100 100 100 81 72 79 88 100 33 31
100 100 98 100 100 100 100 100 100 100 100 100 100 100 100 100 100 100 100 100 100 100 100 100 100 100 100 100 100 100 100 98 79 14 92 96 30 17
100 100 100 100 100 100 100 100 100 100 100 100 100 100 100 100 100 100 100 100 100 100 100 100 100 100 100 100 53 100 100 83 39 32 100 45 70 84
100 100 100 100 100 100 100 100 100 100 100 100 100 100 100 100 100 100 100 100 100 100 100 98 100 100 100 73 99 100 100 100 59 86 100 100 92 93
94 100 100 100 100 100 100 100 100 100 100 100 100 100 100 100 100 99 98 100 100 100 100 100 71 71 100 65 100 100 100 100 100 100 100 100 100 22
100 100 100 100 100 100 100 100 100 100 100 100 100 100 100 100 100 100 100 100 100 100 100 69 99 100 100 100 100 100 100 100 100 100 100 97 88 64
100 100 100 100 100 100 100 100 100 100 100 100 100 100 100 100 100 100 100 100 100 100 100 100 100 100 90 100 100 100 100 100 100 100 100 100 85 95
100 100 100 100 100 100 100 100 100 100 100 100 100 100 100 100 100 100 100 100 100 100 100 100 100 96 93 42 100 100 100 100 100 100 100 93 90 33
100 100 100 100 100 100 100 100 100 100 100 100 100 100 100 100 100 100 100 100 100 100 100 100 86 100 100 87 100 100 100 100 100 100 74 85 37 44
100 100 100 100 100 100 100 100 100 100 100 100 100 100 100 100 100 100 100 100 100 100 100 100 100 100 100 100 100 100 100 100 99 15 5 99 98 99
100 100 100 100 100 100 100 100 100 100 100 100 100 100 100 100 100 100 100 100 100 97 100 100 100 100 100 100 100 100 100 76 11 21 87 99 98 96
100 100 100 100 100 100 100 100 100 100 100 100 100 100 100 100 100 100 100 100 100 100 100 100 100 100 100 100 73 100 100 100 100 96 91 38 91 100
100 100 100 100 100 100 100 100 100 100 100 100 100 100 100 100 100 100 100 100 100 100 100 100 100 100 100 95 76 19 24 94 100 98 100 99 90 100
100 100 100 100 100 100 100 100 100 100 100 100 100 100 100 100 100 100 100 100 100 100 100 100 100 100 100 40 13 85 89 95 38 10 100 100 100 96
100 100 100 100 100 100 100 100 100 100 100 100 100 100 100 100 100 100 100 100 100 100 100 100 100 100 100 94 53 9 0 1 8 72 67 100 100 100
100 100 100 100 100 100 100 100 100 100 100 100 100 100 100 100 100 100 100 100 100 100 100 100 100 99 56 36 44 23 28 96 94 93 98 100 100 100
100 100 100 100 100 100 100 100 100 100 100 100 100 100 100 100 100 100 100 100 100 100 100 100 100 100 100 100 86 76 74 17 28 92 100 100 100 100
100 100 100 100 100 100 100 100 100 100 100 100 100 100 100 100 100 100 100 100 100 100 100 100 100 100 100 100 100 100 99 86 92 100 100 100 100 100

GFSNE_prec_cloud_078.txt.gz
Cloud_Cover
100 100 100 100 100 100 100 100 100 100 100 100 100 65 7 12 19 16 37 91 98 68 48 100 100 100 100 100 98 5 5 5 6 11 55 68 99 93
100 100 100 100 100 100 100 100 100 100 100 77 5 50 36 55 72 67 73 72 100 73 100 100 100 100 100 100 57 5 56 98 100 97 100 99 100 100
100 100 100 100 100 100 100 89 94 100 46 18 100 100 100 100 100 100 100 100 100 100 100 100 100 100 100 82 94 100 100 100 100 100 100 100 100 100
100 100 100 100 100 97 100 39 10 79 51 58 86 100 100 98 100 100 100 100 100 100 100 100 100 100 100 100 100 100 100 100 100 100 100 100 100 100
100 100 100 82 100 96 46 45 97 68 94 99 100 100 100 100 100 100 100 100 100 100 100 100 100 100 100 100 100 98 99 100 100 100 100 100 100 100
100 65 28 64 99 96 94 100 95 99 98 100 100 100 100 100 100 100 100 100 100 100 100 100 100 100 100 98 95 96 100 100 100 100 100 100 100 100
93 99 93 97 100 100 100 99 100 100 100 100 100 100 100 100 100 100 100 100 100 100 100 100 100 100 100 100 99 96 100 100 98 100 100 100 100 100
86 100 99 100 80 100 100 100 100 100 100 100 100 100 100 100 100 100 100 100 100 100 100 100 100 71 100 98 97 100 100 100 100 100 100 100 100 48
45 70 27 97 100 100 100 100 100 100 100 100 100 100 100 100 100 100 100 100 100 100 100 100 100 98 100 100 100 100 100 100 100 100 100 100 100 53
95 92 88 100 100 100 100 100 100 100 100 100 100 100 100 100 100 100 100 100 100 100 100 100 100 100 100 100 100 100 100 100 100 100 100 100 91 81
100 100 100 100 100 100 100 100 100 100 100 100 100 100 100 100 100 100 100 100 100 100 100 100 100 100 100 100 100 100 100 100 100 100 100 100 100 100
100 100 100 100 100 100 100 100 100 100 100 100 100 100 100 100 100 100 100 100 100 100 100 100 100 100 100 100 100 100 100 100 100 100 100 100 100 100
100 100 100 100 100 100 100 100 100 100 100 100 100 100 100 100 100 100 100 100 100 100 100 100 100 100 100 100 100 100 100 100 100 100 100 100 100 100
100 100 100 100 100 100 100 100 100 100 100 100 100 100 100 100 100 100 100 100 100 100 100 100 100 100 100 100 100 100 100 71 59 100 100 100 100 100
100 100 100 100 100 100 100 100 100 100 100 100 100 100 92 100 100 100 100 100 100 100 100 100 100 100 100 90 84 82 46 60 100 100 100 100 100 100
100 100 100 100 100 100 100 100 100 100 100 100 100 100 100 98 92 68 89 100 100 100 97 44 60 13 20 52 100 97 85 43 94 80 83 88 93 99
100 100 100 100 100 100 100 100 100 100 100 100 100 100 100 100 100 100 100 99 100 97 5 5 39 50 80 100 100 71 98 93 40 98 100 73 63 86
100 100 100 100 100 100 100 100 100 100 100 100 100 100 100 100 100 100 100 100 100 100 99 98 99 79 99 100 61 27 80 99 99 100 100 82 6 67
100 100 100 100 100 100 100 100 100 100 100 100 100 100 100 100 100 100 100 100 100 100 100 100 91 39 25 8 97 86 96 22 13 5 5 7 74 8
100 100 100 100 100 100 100 100 100 100 100 100 100 100 100 100 100 100 100 100 100 98 98 62 63 100 100 99 96 6 5 4 29 51 75 75 67 43
100 100 100 100 100 100 100 100 100 100 100 100 100 100 100 100 100 100 100 100 97 74 86 73 81 34 26 5 5 3 4 9 100 100 100 77 46 99
100 100 100 100 100 100 100 100 100 100 100 98 100 100 100 100 100 100 100 100 100 100 99 50 12 79 100 100 100 60 5 5 6 20 78 99 100 100
100 100 100 100 100 100 100 100 100 100 100 100 100 100 100 100 99 100 100 100 100 87 89 67 100 63 43 100 100 98 7 6 89 61 6 99 100 100

GFSNE_prec_cloud_081.txt.gz
Cloud_Cover
100 100 100 100 100 100 100 100 100 100 100 100 100 100 100 100 100 29 17 97 92 50 97 100 60 70 86 76 99 95 100 100 98 30 100 83 74 65
100 100 100 100 100 100 100 100 100 100 100 100 100 100 99 74 90 92 20 33 94 100 100 100 100 100 100 99 100 100 100 73 59 81 100 100 99 100
100 100 100 99 100 100 100 100 100 100 100 100 100 82 68 69 100 99 99 100 100 100 100 100 100 100 100 100 100 100 100 97 100 100 100 100 100 100
100 100 100 100 100 100 100 100 97 97 100 100 100 100 48 91 100 100 100 100 100 100 100 100 100 100 100 100 100 100 100 100 100 100 100 100 100 100
96 100 100 100 95 67 84 100 99 77 73 96 100 85 100 100 100 100 100 100 100 100 100 100 100 100 100 100 100 100 100 100 100 100 100 100 100 100
5 5 5 5 42 58 72 100 100 100 99 100 100 100 92 100 100 100 100 100 100 100 100 100 100 100 100 100 100 100 100 99 100 100 100 100 100 96
5 5 36 62 46 57 73 5 99 100 100 100 100 100 100 100 100 100 100 100 100 100 100 100 100 100 100 100 100 100 100 100 100 100 100 98 100 77
7 12 8 61 31 88 64 18 98 22 100 100 100 100 100 100 100 100 100 100 100 100 100 100 100 100 100 100 100 100 100 100 100 100 100 100 100 100
4 5 7 28 60 93 100 100 100 100 100 100 100 100 100 100 100 100 100 100 100 100 100 100 100 100 100 100 100 100 100 100 100 100 100 100 100 100
7 43 36 55 100 99 100 100 100 100 100 100 100 100 100 100 100 100 100 100 100 100 100 100 100 100 100 100 100 100 100 100 100 100 100 100 100 100
100 100 100 100 100 100 100 100 100 100 100 100 100 100 100 100 100 100 100 100 100 100 100 100 100 100 100 100 100 100 100 100 100 100 100 100 98 13
100 100 100 100 100 100 100 100 100 100 100 100 100 100 100 100 100 100 100 100 100 100 100 100 100 100 100 100 100 100 100 100 100 100 100 100 100 100
100 100 100 100 100 100 100 100 100 100 100 100 100 100 100 100 100 100 100 100 100 100 100 100 99 97 92 59 81 100 100 100 100 100 100 100 100 100
100 100 100 100 100 100 100 100 100 100 100 100 100 100 100 100 100 100 100 100 100 100 100 100 100 100 100 100 99 100 100 100 100 100 100 100 100 100
100 100 100 100 100 100 100 100 100 100 100 100 100 100 100 100 100 100 100 100 100 100 100 100 96 55 92 92 100 100 100 100 100 100 100 100 100 78
100 100 100 100 100 100 100 100 100 100 100 100 100 100 100 100 100 100 100 100 100 100 100 100 100 100 100 100 100 100 100 100 100 100 100 98 98 100
100 100 100 100 100 100 100 100 100 100 100 100 100 100 100 100 100 100 100 100 100 100 100 100 100 100 100 100 100 100 89 100 100 100 89 100 100 100
100 100 100 100 100 100 100 100 100 100 100 100 100 100 100 100 100 100 100 100 100 100 100 100 100 100 100 100 56 97 100 91 99 100 100 97 38 30
100 100 100 100 100 100 100 100 100 100 100 100 100 100 100 100 100 100 100 100 100 100 100 100 95 50 100 100 100 100 100 100 100 13 7 11 27 6
100 100 100 100 100 100 100 100 100 100 100 100 100 100 100 100 100 100 100 100 96 78 26 14 86 100 100 100 100 90 41 76 98 75 79 7 12 11
100 100 100 100 100 100 100 100 100 100 100 100 100 100 100 100 100 99 55 43 61 70 100 100 99 91 52 31 40 5 3 1 4 62 20 86 95 32
100 100 100 100 100 100 100 100 100 100 100 100 100 100 93 100 100 100 100 100 100 100 99 45 26 14 5 5 5 5 5 2 15 99 100 100 100 100
100 100 100 100 100 100 100 100 100 100 89 100 100 100 100 100 100 100 100 100 100 99 34 5 5 5 5 5 56 73 6 14 6 72 34 100 100 99

GFSNE_prec_cloud_084.txt.gz
Cloud_Cover
100 100 100 100 100 100 100 100 100 100 100 100 100 100 100 100 100 100 100 100 98 100 97 100 100 100 100 100 100 100 100 100 99 85 100 100 100 100
100 100 100 100 100 100 100 100 100 100 100 100 98 97 100 100 93 95 100 100 100 100 100 100 100 100 100 100 100 100 100 100 100 100 100 100 100 83
100 100 100 100 100 100 100 100 100 100 100 100 100 99 100 100 100 100 100 100 99 98 91 100 100 100 100 100 100 100 100 100 100 100 100 100 94 93
45 93 92 98 100 97 100 100 100 100 100 100 100 98 42 88 100 100 100 99 61 98 100 100 100 100 100 100 100 100 100 100 100 100 100 97 100 100
8 32 22 78 86 26 13 18 100 94 86 100 100 100 100 100 100 100 100 100 99 100 100 100 100 100 100 100 100 100 100 100 100 100 100 100 99 98
5 5 5 4 3 5 5 16 79 100 99 100 100 86 90 80 89 78 100 100 100 100 100 100 100 100 100 100 100 100 100 100 100 100 100 100 100 98
5 5 5 5 25 64 86 7 50 82 54 48 22 68 100 100 100 96 100 100 100 100 100 100 100 100 100 100 100 100 100 100 100 100 100 100 100 100
93 72 67 79 52 86 98 100 90 65 25 33 34 68 100 100 73 100 100 100 100 100 100 100 100 100 100 100 100 100 100 100 100 100 100 100 100 100
100 90 97 24 38 54 86 99 100 96 85 75 61 84 98 100 100 100 100 100 100 100 100 100 100 100 100 100 100 100 100 100 100 100 100 100 100 100
100 93 98 100 100 100 96 92 92 100 100 100 100 89 100 100 100 100 100 100 100 100 100 100 100 100 100 100 100 100 100 100 100 100 100 100 100 100
100 100 100 100 100 100 100 100 100 100 100 100 100 100 100 100 100 100 100 100 100 100 100 100 100 100 100 100 100 100 100 100 100 96 100 100 90 54
100 100 100 100 100 100 100 100 100 100 100 100 100 100 100 100 100 100 100 100 100 100 100 100 100 100 100 91 100 100 100 100 100 100 100 100 100 100
100 100 100 100 100 100 100 100 100 100 100 100 100 100 100 100 100 100 100 100 100 100 100 100 100 100 100 100 100 100 100 100 100 100 100 100 100 100
100 100 100 100 100 100 100 100 100 100 100 100 100 100 100 100 100 100 100 100 100 100 100 100 100 100 99 100 100 100 100 100 100 100 100 100 100 100
100 100 100 100 100 100 100 100 100 100 100 100 100 100 100 100 100 100 100 100 100 100 100 100 100 100 100 99 75 100 100 100 100 100 100 100 100 100
100 100 100 100 100 100 100 100 100 100 100 100 100 100 100 100 100 100 100 100 100 100 100 100 100 100 100 100 100 100 100 100 100 100 100 99 93 100
100 100 100 100 100 100 100 100 100 100 100 100 100 100 100 100 100 100 100 100 100 100 99 100 100 100 100 100 100 100 100 85 96 66 36 48 93 100
100 100 100 100 100 100 100 100 100 100 100 100 100 100 100 100 100 100 100 100 100 100 100 100 100 100 100 100 88 99 72 12 34 28 5 50 100 100
100 100 100 100 100 100 100 100 100 100 100 100 100 100 100 100 100 100 100 100 100 100 100 100 100 100 100 100 100 100 95 55 12 81 100 20 100 97
100 100 100 100 100 100 100 100 100 100 100 100 100 100 100 100 100 100 100 100 100 100 96 95 86 100 100 100 86 82 30 76 100 100 78 89 24 5
100 100 100 100 100 100 100 100 100 100 100 100 100 100 100 100 100 100 100 100 100 100 100 100 94 38 94 46 6 48 98 98 26 100 91 100 100 90
100 100 100 100 100 100 100 100 100 100 100 100 100 100 100 100 100 100 100 100 55 87 85 26 5 33 51 14 88 37 18 81 15 5 42 96 100 100
100 100 100 100 100 100 100 100 100 100 100 100 100 100 100 100 90 79 92 42 5 5 5 18 66 98 28 91 66 100 86 5 5 18 5 95 100 100

GFSNE_prec_cloud_087.txt.gz
Cloud_Cover
100 100 100 100 100 100 100 100 100 100 100 100 100 100 100 100 100 100 100 100 100 100 100 100 100 100 98 80 100 94 100 100 100 100 100 100 100 100
100 100 100 100 100 100 100 100 100 100 100 100 100 100 100 100 100 100 100 100 100 100 100 100 100 100 100 100 100 100 100 100 100 100 100 100 100 100
99 92 91 100 100 100 100 100 100 100 100 100 100 100 100 99 98 100 100 100 100 100 100 100 100 100 100 100 100 100 100 100 100 100 100 100 100 100
97 100 100 100 100 100 100 100 100 100 100 100 93 100 100 99 100 100 100 96 100 97 99 100 100 100 100 100 85 96 100 100 100 100 100 100 100 100
5 12 58 95 24 56 99 100 98 100 100 100 62 98 44 99 100 100 100 97 96 96 100 100 100 100 100 100 100 100 100 100 100 100 100 100 100 100
79 32 5 4 5 5 21 27 91 100 86 100 100 30 94 100 87 60 29 55 71 98 100 100 99 100 100 100 100 100 100 100 100 100 100 100 100 100
5 16 65 98 80 20 5 5 79 67 70 100 100 100 100 100 100 69 59 96 100 80 94 100 100 100 100 100 100 100 100 100 100 100 100 100 100 100
85 65 100 52 60 24 84 100 55 46 13 57 100 100 99 99 99 99 88 98 100 98 100 100 100 100 100 100 100 100 100 100 100 100 100 100 100 100
45 67 86 88 69 59 97 69 100 99 99 100 100 88 100 100 99 100 100 100 98 100 100 100 100 100 100 100 100 100 100 100 100 100 100 100 100 100
78 88 100 96 90 89 73 92 64 95 99 100 100 100 100 100 100 100 100 100 100 100 100 100 100 100 100 100 100 100 100 100 100 100 100 100 100 100
100 100 100 99 98 99 100 100 100 100 100 100 100 100 100 100 100 100 100 100 100 100 100 100 100 100 100 100 100 100 100 100 100 100 100 100 100 100
100 100 100 100 100 100 100 100 100 100 100 100 100 100 100 100 100 100 100 100 100 100 100 100 100 100 100 100 100 100 100 100 100 100 100 100 100 100
100 100 100 100 100 100 100 100 100 100 100 100 100 100 100 100 100 100 100 100 100 100 100 100 100 100 100 100 100 100 100 100 100 100 100 100 100 100
100 100 100 100 100 100 100 100 100 100 100 100 100 100 100 100 100 100 100 100 100 100 100 100 100 100 100 100 100 100 100 100 100 100 100 100 100 100
100 100 100 100 100 100 100 100 100 100 100 100 100 100 100 100 100 100 100 100 100 100 100 100 100 100 100 100 100 100 100 100 100 100 100 100 100 100
100 100 100 100 100 100 100 100 100 100 100 100 100 100 100 100 100 100 100 100 100 100 100 100 100 100 100 100 100 100 100 100 100 100 100 100 100 100
100 100 100 100 100 100 100 100 100 100 100 100 100 100 100 100 100 100 100 100 100 100 100 100 100 100 100 100 100 100 100 100 100 100 96 100 100 100
100 100 100 100 100 100 100 100 100 100 100 100 100 100 100 100 100 100 100 100 100 100 100 100 100 100 100 100 100 100 100 100 100 100 100 100 100 100
100 100 100 100 100 100 100 100 100 100 100 100 100 100 100 100 100 100 100 100 100 100 100 100 100 100 100 100 100 100 100 100 100 100 100 100 90 40
100 100 100 100 100 100 100 100 100 100 100 100 100 100 100 100 100 100 100 100 100 100 100 100 100 100 100 100 100 100 100 100 100 100 97 90 67 37
100 100 100 100 100 100 100 100 100 100 100 100 100 100 100 100 100 100 100 100 100 100 100 100 100 100 100 100 100 100 100 56 48 86 84 100 96 76
100 100 100 100 100 100 100 100 100 100 100 100 100 100 100 100 100 100 100 100 100 100 100 96 99 70 28 19 84 49 98 28 1 4 6 91 100 100
100 100 100 100 100 100 100 100 100 100 100 100 100 100 100 100 90 100 100 100 100 100 100 76 93 77 52 26 38 5 5 5 5 26 5 62 100 100